FW4143 Weather Reports


time (UTC)temp
C
wind
direction
speed
KPH
gust
KPH
rain 1hr
cm
rain 24hr
cm
rain mn
cm
humidity
%
barometer
mb
20260508160103 22 113 1.6 4.8 0.00 0.00 0.00 29 1013.5
20260508160003 22 116 1.6 4.8 0.00 0.00 0.00 29 1013.5
20260508155924 22 119 1.6 4.8 0.00 0.00 0.00 29 1013.5
20260508155803 22 128 1.6 4.8 0.00 0.00 0.00 29 1013.5
20260508155703 22 132 3.2 6.4 0.00 0.00 0.00 29 1013.5
20260508155603 22 143 3.2 6.4 0.00 0.00 0.00 28 1013.5
20260508155524 22 144 3.2 6.4 0.00 0.00 0.00 28 1013.5
20260508155424 22 151 3.2 6.4 0.00 0.00 0.00 31 1013.5
20260508155306 22 161 1.6 6.4 0.00 0.00 0.00 28 1013.5
20260508155203 22 169 1.6 6.4 0.00 0.00 0.00 31 1013.5
20260508155103 22 175 1.6 6.4 0.00 0.00 0.00 33 1013.4
20260508155003 22 183 1.6 6.4 0.00 0.00 0.00 33 1013.4
20260508154903 22 190 1.6 6.4 0.00 0.00 0.00 32 1013.4
20260508154803 22 199 1.6 6.4 0.00 0.00 0.00 31 1013.3
20260508154703 22 215 1.6 6.4 0.00 0.00 0.00 30 1013.3
20260508154603 22 217 1.6 3.2 0.00 0.00 0.00 29 1013.3
20260508154503 22 217 1.6 3.2 0.00 0.00 0.00 29 1013.3
20260508154424 22 217 1.6 3.2 0.00 0.00 0.00 26 1013.4
20260508154324 22 217 1.6 3.2 0.00 0.00 0.00 25 1013.4
20260508154203 22 217 1.6 3.2 0.00 0.00 0.00 23 1013.4
20260508154103 21 217 1.6 3.2 0.00 0.00 0.00 22 1013.5
20260508154003 21 217 0.0 3.2 0.00 0.00 0.00 22 1013.4
20260508153924 21 217 0.0 3.2 0.00 0.00 0.00 23 1013.4
20260508153803 21 217 0.0 3.2 0.00 0.00 0.00 19 1013.5
20260508153703 21 217 0.0 3.2 0.00 0.00 0.00 17 1013.5
20260508153603 21 0 0.0 1.6 0.00 0.00 0.00 15 1013.5
20260508153503 21 0 0.0 0.0 0.00 0.00 0.00 17 1013.5
20260508153403 21 0 0.0 0.0 0.00 0.00 0.00 19 1013.5
20260508153324 21 0 0.0 0.0 0.00 0.00 0.00 17 1013.5
20260508153203 21 0 0.0 0.0 0.00 0.00 0.00 14 1013.5
20260508153103 21 0 0.0 0.0 0.00 0.00 0.00 15 1013.5
20260508153003 21 0 0.0 0.0 0.00 0.00 0.00 15 1013.4
20260508152924 21 0 0.0 0.0 0.00 0.00 0.00 13 1013.5
20260508152803 20 0 0.0 0.0 0.00 0.00 0.00 12 1013.4
20260508152703 20 0 0.0 0.0 0.00 0.00 0.00 18 1013.5
20260508152603 20 0 0.0 0.0 0.00 0.00 0.00 16 1013.5
20260508152503 20 0 0.0 0.0 0.00 0.00 0.00 16 1013.5
20260508152403 20 0 0.0 0.0 0.00 0.00 0.00 16 1013.5
20260508152306 20 0 0.0 0.0 0.00 0.00 0.00 16 1013.6
20260508152203 20 0 0.0 0.0 0.00 0.00 0.00 16 1013.5
20260508152124 20 0 0.0 0.0 0.00 0.00 0.00 15 1013.6
20260508152003 20 0 0.0 0.0 0.00 0.00 0.00 15 1013.6
20260508151903 20 0 0.0 0.0 0.00 0.00 0.00 13 1013.6
20260508151803 20 0 0.0 0.0 0.00 0.00 0.00 13 1013.6
20260508151703 20 0 0.0 0.0 0.00 0.00 0.00 12 1013.6
20260508151603 20 0 0.0 0.0 0.00 0.00 0.00 11 1013.6
20260508151503 20 222 0.0 3.2 0.00 0.00 0.00 13 1013.6
20260508151403 20 222 0.0 3.2 0.00 0.00 0.00 14 1013.6
20260508151303 20 223 1.6 4.8 0.00 0.00 0.00 13 1013.7
20260508151203 20 223 1.6 4.8 0.00 0.00 0.00 14 1013.7
20260508151124 20 223 1.6 4.8 0.00 0.00 0.00 13 1013.7
20260508151003 20 224 1.6 4.8 0.00 0.00 0.00 13 1013.8
20260508150924 20 224 1.6 4.8 0.00 0.00 0.00 12 1013.8
20260508150804 20 225 1.6 6.4 0.00 0.00 0.00 11 1013.8
20260508150703 20 225 1.6 6.4 0.00 0.00 0.00 10 1013.8
20260508150603 20 225 3.2 6.4 0.00 0.00 0.00 9 1013.8
20260508150503 20 225 1.6 6.4 0.00 0.00 0.00 8 1013.6
20260508150403 20 225 3.2 6.4 0.00 0.00 0.00 8 1013.7
20260508150303 20 226 3.2 6.4 0.00 0.00 0.00 6 1013.7
20260508150203 20 226 3.2 6.4 0.00 0.00 0.00 9 1013.7
20260508150103 20 226 3.2 6.4 0.00 0.00 0.00 10 1013.7
20260508150004 20 226 3.2 6.4 0.00 0.00 0.00 11 1013.8
20260508145903 20 226 3.2 6.4 0.00 0.00 0.00 11 1013.8
20260508145803 20 226 1.6 4.8 0.00 0.00 0.00 12 1013.8
20260508145703 20 226 1.6 6.4 0.00 0.00 0.00 12 1013.8
20260508145604 20 226 3.2 6.4 0.00 0.00 0.00 12 1013.8
20260508145503 20 227 3.2 6.4 0.00 0.00 0.00 12 1013.9
20260508145403 20 227 3.2 6.4 0.00 0.00 0.00 8 1013.8
20260508145306 20 228 3.2 6.4 0.00 0.00 0.00 6 1013.8
20260508145203 20 229 3.2 6.4 0.00 0.00 0.00 6 1013.6
20260508145103 19 230 3.2 6.4 0.00 0.00 0.00 5 1013.6
20260508145003 19 231 3.2 6.4 0.00 0.00 0.00 4 1013.6
20260508144903 19 233 3.2 6.4 0.00 0.00 0.00 6 1013.6
20260508144803 19 234 3.2 8.0 0.00 0.00 0.00 8 1013.5
20260508144724 19 236 3.2 8.0 0.00 0.00 0.00 7 1013.6
20260508144603 19 238 3.2 8.0 0.00 0.00 0.00 5 1013.6
20260508144503 19 241 3.2 8.0 0.00 0.00 0.00 5 1013.6
20260508144424 19 242 3.2 8.0 0.00 0.00 0.00 5 1013.5
20260508144303 19 243 3.2 8.0 0.00 0.00 0.00 6 1013.6
20260508144203 19 245 3.2 8.0 0.00 0.00 0.00 4 1013.5
20260508144124 19 246 3.2 8.0 0.00 0.00 0.00 5 1013.5
20260508144024 19 247 3.2 8.0 0.00 0.00 0.00 2 1013.5
20260508143903 19 250 3.2 8.0 0.00 0.00 0.00 1 1013.5
20260508143803 19 250 3.2 8.0 0.00 0.00 0.00 1 1013.4
20260508143703 18 250 3.2 8.0 0.00 0.00 0.00 1 1013.4
20260508143624 18 250 3.2 8.0 0.00 0.00 0.00 1 1013.4
20260508143503 18 250 4.8 8.0 0.00 0.00 0.00 1 1013.4
20260508143403 18 251 4.8 8.0 0.00 0.00 0.00 1 1013.5
20260508143303 18 251 4.8 8.0 0.00 0.00 0.00 1 1013.5
20260508143203 18 252 4.8 8.0 0.00 0.00 0.00 1 1013.5
20260508143103 18 253 3.2 8.0 0.00 0.00 0.00 1 1013.6
20260508143003 18 254 3.2 8.0 0.00 0.00 0.00 1 1013.6
20260508142903 18 256 3.2 8.0 0.00 0.00 0.00 1 1013.6
20260508142803 18 257 3.2 8.0 0.00 0.00 0.00 1 1013.6
20260508142703 18 259 3.2 8.0 0.00 0.00 0.00 1 1013.6
20260508142603 18 261 3.2 8.0 0.00 0.00 0.00 1 1013.6
20260508142524 18 264 3.2 6.4 0.00 0.00 0.00 1 1013.6
20260508142404 18 267 3.2 6.4 0.00 0.00 0.00 1 1013.7
20260508142306 18 266 3.2 8.0 0.00 0.00 0.00 1 1013.7
20260508142203 18 259 3.2 8.0 0.00 0.00 0.00 1 1013.8
20260508142103 18 256 3.2 8.0 0.00 0.00 0.00 1 1013.8
20260508142003 18 251 3.2 8.0 0.00 0.00 0.00 1 1013.8
20260508141903 18 246 3.2 8.0 0.00 0.00 0.00 1 1013.8
20260508141803 18 241 3.2 8.0 0.00 0.00 0.00 1 1013.8
20260508141703 18 234 3.2 8.0 0.00 0.00 0.00 1 1013.8
20260508141603 18 229 3.2 8.0 0.00 0.00 0.00 1 1013.8
20260508141503 18 225 3.2 8.0 0.00 0.00 0.00 1 1013.8
20260508141403 18 220 3.2 8.0 0.00 0.00 0.00 1 1013.9
20260508141303 18 214 3.2 6.4 0.00 0.00 0.00 1 1013.9
20260508141203 18 214 3.2 6.4 0.00 0.00 0.00 1 1013.9
20260508141124 18 214 3.2 6.4 0.00 0.00 0.00 1 1013.8
20260508141024 18 214 3.2 6.4 0.00 0.00 0.00 1 1013.9
20260508140903 18 214 3.2 6.4 0.00 0.00 0.00 1 1013.8
20260508140824 18 214 3.2 6.4 0.00 0.00 0.00 1 1013.9
20260508140703 18 214 3.2 6.4 0.00 0.00 0.00 1 1013.8
20260508140603 18 214 3.2 6.4 0.00 0.00 0.00 1 1013.8
20260508140503 18 212 3.2 6.4 0.00 0.00 0.00 1 1013.9
20260508140403 18 209 3.2 6.4 0.00 0.00 0.00 1 1013.9
20260508140303 18 208 3.2 6.4 0.00 0.00 0.00 1 1013.9
20260508140203 18 205 3.2 6.4 0.00 0.00 0.00 1 1013.8
20260508140103 18 203 1.6 6.4 0.00 0.00 0.00 1 1013.8
20260508140004 18 202 3.2 6.4 0.00 0.00 0.00 1 1013.8
20260508135903 18 199 3.2 6.4 0.00 0.00 0.00 1 1013.9
20260508135803 18 198 3.2 6.4 0.00 0.00 0.00 1 1013.9
20260508135703 18 196 3.2 6.4 0.00 0.00 0.00 1 1013.9
20260508135603 18 193 3.2 6.4 0.00 0.00 0.00 1 1014.0
20260508135503 18 191 1.6 4.8 0.00 0.00 0.00 1 1014.1
20260508135403 18 191 1.6 4.8 0.00 0.00 0.00 1 1014.1
20260508135306 18 191 1.6 4.8 0.00 0.00 0.00 1 1014.1
20260508135224 18 191 3.2 4.8 0.00 0.00 0.00 1 1014.1
20260508135103 18 191 3.2 4.8 0.00 0.00 0.00 1 1014.2
20260508135003 17 191 3.2 6.4 0.00 0.00 0.00 1 1014.2
20260508134903 18 191 3.2 6.4 0.00 0.00 0.00 1 1014.2
20260508134803 18 191 3.2 6.4 0.00 0.00 0.00 1 1014.2
20260508134703 18 191 3.2 6.4 0.00 0.00 0.00 1 1014.2
20260508134603 18 191 3.2 6.4 0.00 0.00 0.00 1 1014.2
20260508134524 18 191 3.2 6.4 0.00 0.00 0.00 1 1014.2
20260508134403 17 191 3.2 6.4 0.00 0.00 0.00 1 1014.2
20260508134303 17 191 3.2 6.4 0.00 0.00 0.00 1 1014.2
20260508134203 17 189 3.2 8.0 0.00 0.00 0.00 1 1014.2
20260508134103 17 186 3.2 8.0 0.00 0.00 0.00 1 1014.2
20260508134003 17 184 3.2 8.0 0.00 0.00 0.00 1 1014.2
20260508133903 17 181 3.2 8.0 0.00 0.00 0.00 1 1014.2
20260508133824 17 179 3.2 8.0 0.00 0.00 0.00 1 1014.1
20260508133703 17 177 3.2 8.0 0.00 0.00 0.00 1 1014.1
20260508133624 17 176 3.2 8.0 0.00 0.00 0.00 1 1014.1
20260508133524 17 174 3.2 8.0 0.00 0.00 0.00 1 1014.2
20260508133403 17 171 3.2 8.0 0.00 0.00 0.00 1 1014.2
20260508133303 17 168 3.2 8.0 0.00 0.00 0.00 1 1014.2
20260508133203 17 165 3.2 6.4 0.00 0.00 0.00 1 1014.2
20260508133103 17 165 3.2 6.4 0.00 0.00 0.00 1 1014.2
20260508133003 17 164 3.2 6.4 0.00 0.00 0.00 1 1014.2
20260508132903 17 164 3.2 6.4 0.00 0.00 0.00 1 1014.2
20260508132803 17 163 3.2 6.4 0.00 0.00 0.00 1 1014.1
20260508132703 17 163 3.2 6.4 0.00 0.00 0.00 1 1014.1
20260508132603 17 162 3.2 6.4 0.00 0.00 0.00 1 1014.1
20260508132524 17 162 3.2 6.4 0.00 0.00 0.00 1 1014.1
20260508132403 17 161 3.2 6.4 0.00 0.00 0.00 1 1014.0
20260508132306 17 161 3.2 6.4 0.00 0.00 0.00 1 1014.0
20260508132203 17 160 3.2 6.4 0.00 0.00 0.00 1 1014.1
20260508132103 17 159 3.2 6.4 0.00 0.00 0.00 1 1014.0
20260508132003 17 159 3.2 6.4 0.00 0.00 0.00 1 1014.0
20260508131924 17 158 3.2 6.4 0.00 0.00 0.00 1 1014.0
20260508131803 17 158 3.2 6.4 0.00 0.00 0.00 1 1014.0
20260508131703 17 158 3.2 6.4 0.00 0.00 0.00 1 1014.0
20260508131624 17 158 3.2 6.4 0.00 0.00 0.00 1 1014.1
20260508131503 17 159 1.6 4.8 0.00 0.00 0.00 1 1014.1
20260508131403 17 161 3.2 6.4 0.00 0.00 0.00 1 1014.1
20260508131303 17 162 3.2 6.4 0.00 0.00 0.00 1 1014.1
20260508131203 17 163 3.2 6.4 0.00 0.00 0.00 1 1014.1
20260508131103 17 164 3.2 6.4 0.00 0.00 0.00 1 1014.1
20260508131003 17 164 3.2 6.4 0.00 0.00 0.00 1 1014.1
20260508130903 17 166 3.2 8.0 0.00 0.00 0.00 1 1014.1
20260508130803 17 167 3.2 8.0 0.00 0.00 0.00 1 1014.1
20260508130703 17 170 3.2 9.7 0.00 0.00 0.00 1 1014.0
20260508130624 17 169 3.2 9.7 0.00 0.00 0.00 1 1014.0
20260508130503 17 167 3.2 9.7 0.00 0.00 0.00 1 1014.0
20260508130403 17 165 3.2 9.7 0.00 0.00 0.00 1 1013.9
20260508130303 17 168 3.2 9.7 0.00 0.00 0.00 1 1013.9
20260508130203 17 170 3.2 9.7 0.00 0.00 0.00 1 1013.9
20260508130103 17 172 4.8 9.7 0.00 0.00 0.00 1 1013.9
20260508130003 17 174 4.8 9.7 0.00 0.00 0.00 1 1013.9
20260508125903 17 175 3.2 9.7 0.00 0.00 0.00 1 1013.9
20260508125824 17 175 3.2 9.7 0.00 0.00 0.00 1 1014.0
20260508125703 17 174 3.2 9.7 0.00 0.00 0.00 1 1014.0
20260508125624 17 176 3.2 9.7 0.00 0.00 0.00 1 1014.1
20260508125503 17 178 3.2 9.7 0.00 0.00 0.00 1 1014.1
20260508125403 17 180 3.2 9.7 0.00 0.00 0.00 1 1014.1
20260508125306 17 178 3.2 9.7 0.00 0.00 0.00 1 1014.2
20260508125224 17 177 3.2 9.7 0.00 0.00 0.00 1 1014.2
20260508125103 17 178 3.2 9.7 0.00 0.00 0.00 1 1014.2
20260508125024 17 177 3.2 9.7 0.00 0.00 0.00 1 1014.2
20260508124903 17 176 3.2 9.7 0.00 0.00 0.00 1 1014.2
20260508124803 17 178 4.8 9.7 0.00 0.00 0.00 1 1014.2
20260508124703 17 176 4.8 9.7 0.00 0.00 0.00 1 1014.2
20260508124603 17 173 4.8 9.7 0.00 0.00 0.00 1 1014.2
20260508124503 17 171 4.8 9.7 0.00 0.00 0.00 1 1014.2
20260508124403 17 168 4.8 9.7 0.00 0.00 0.00 1 1014.1
20260508124303 17 166 4.8 9.7 0.00 0.00 0.00 1 1014.1
20260508124203 17 164 4.8 9.7 0.00 0.00 0.00 1 1014.1
20260508124103 17 161 4.8 9.7 0.00 0.00 0.00 1 1014.1
20260508124024 17 158 4.8 9.7 0.00 0.00 0.00 1 1014.1
20260508123903 17 154 4.8 9.7 0.00 0.00 0.00 1 1014.1
20260508123803 17 148 3.2 8.0 0.00 0.00 0.00 1 1014.2
20260508123703 17 146 3.2 8.0 0.00 0.00 0.00 1 1014.3
20260508123603 17 147 3.2 8.0 0.00 0.00 0.00 1 1014.3
20260508123524 17 146 3.2 8.0 0.00 0.00 0.00 1 1014.3
20260508123403 17 145 3.2 4.8 0.00 0.00 0.00 1 1014.3
20260508123303 17 146 3.2 4.8 0.00 0.00 0.00 1 1014.3
20260508123224 17 147 3.2 4.8 0.00 0.00 0.00 1 1014.3
20260508123103 17 149 3.2 4.8 0.00 0.00 0.00 1 1014.4
20260508123025 17 149 3.2 4.8 0.00 0.00 0.00 1 1014.4
20260508122903 17 150 3.2 4.8 0.00 0.00 0.00 1 1014.3
20260508122803 17 151 3.2 4.8 0.00 0.00 0.00 1 1014.3
20260508122703 17 151 3.2 4.8 0.00 0.00 0.00 1 1014.3
20260508122604 17 152 3.2 4.8 0.00 0.00 0.00 1 1014.2
20260508122503 17 152 3.2 4.8 0.00 0.00 0.00 1 1014.2
20260508122403 17 151 3.2 4.8 0.00 0.00 0.00 1 1014.2
20260508122306 17 151 3.2 4.8 0.00 0.00 0.00 1 1014.3
20260508122224 17 151 3.2 4.8 0.00 0.00 0.00 1 1014.3
20260508122103 17 151 3.2 6.4 0.00 0.00 0.00 1 1014.3
20260508122003 17 150 3.2 6.4 0.00 0.00 0.00 1 1014.3
20260508121903 17 150 3.2 6.4 0.00 0.00 0.00 1 1014.3
20260508121803 17 149 3.2 6.4 0.00 0.00 0.00 1 1014.3
20260508121703 17 148 3.2 6.4 0.00 0.00 0.00 1 1014.3
20260508121603 17 148 3.2 6.4 0.00 0.00 0.00 1 1014.4
20260508121503 17 147 3.2 6.4 0.00 0.00 0.00 1 1014.4
20260508121424 17 146 3.2 9.7 0.00 0.00 0.00 1 1014.4
20260508121304 17 149 3.2 9.7 0.00 0.00 0.00 1 1014.4
20260508121203 17 152 3.2 9.7 0.00 0.00 0.00 1 1014.5
20260508121103 17 152 3.2 9.7 0.00 0.00 0.00 1 1014.5
20260508121003 17 153 3.2 9.7 0.00 0.00 0.00 1 1014.5
20260508120903 17 155 4.8 9.7 0.00 0.00 0.00 1 1014.5
20260508120803 17 156 4.8 9.7 0.00 0.00 0.00 1 1014.5
20260508120703 17 157 4.8 9.7 0.00 0.00 0.00 1 1014.5
20260508120603 17 158 4.8 9.7 0.00 0.00 0.00 1 1014.5
20260508120503 17 159 4.8 9.7 0.00 0.00 0.00 1 1014.5
20260508120403 17 159 4.8 8.0 0.00 0.00 0.00 1 1014.6
20260508120303 17 157 4.8 8.0 0.00 0.00 0.00 1 1014.6
20260508120203 17 154 4.8 8.0 0.00 0.00 0.00 1 1014.6
20260508120103 17 153 4.8 8.0 0.00 0.00 0.00 1 1014.6
20260508120003 17 154 4.8 8.0 0.00 0.00 0.00 1 1014.6
20260508115903 17 154 4.8 8.0 0.00 0.00 0.00 1 1014.6
20260508115803 17 155 4.8 8.0 0.00 0.00 0.00 1 1014.6
20260508115703 17 156 4.8 8.0 0.00 0.00 0.00 1 1014.6
20260508115603 17 158 4.8 11.3 0.00 0.00 0.00 1 1014.6
20260508115503 17 158 4.8 11.3 0.00 0.00 0.00 1 1014.7
20260508115424 17 159 4.8 11.3 0.00 0.00 0.00 1 1014.7
20260508115306 17 161 4.8 11.3 0.00 0.00 0.00 1 1014.7
20260508115203 17 163 4.8 11.3 0.00 0.00 0.00 1 1014.8
20260508115103 17 163 4.8 11.3 0.00 0.00 0.00 1 1014.8
20260508115003 17 163 4.8 11.3 0.00 0.00 0.00 1 1014.8
20260508114903 17 164 6.4 11.3 0.00 0.00 0.00 1 1014.8
20260508114803 17 163 4.8 11.3 0.00 0.00 0.00 2 1014.9
20260508114724 17 162 4.8 11.3 0.00 0.00 0.00 2 1014.9
20260508114603 17 161 4.8 9.7 0.00 0.00 0.00 1 1014.9
20260508114503 17 163 4.8 9.7 0.00 0.00 0.00 1 1014.9
20260508114424 17 163 4.8 9.7 0.00 0.00 0.00 1 1014.8
20260508114303 17 161 4.8 9.7 0.00 0.00 0.00 2 1014.8
20260508114203 17 161 4.8 9.7 0.00 0.00 0.00 2 1014.9
20260508114103 17 162 4.8 9.7 0.00 0.00 0.00 2 1014.8
20260508114003 17 164 4.8 9.7 0.00 0.00 0.00 3 1014.9
20260508113903 17 161 4.8 9.7 0.00 0.00 0.00 2 1014.8
20260508113824 17 161 4.8 9.7 0.00 0.00 0.00 2 1014.8
20260508113703 17 161 4.8 11.3 0.00 0.00 0.00 3 1014.8
20260508113624 17 160 4.8 11.3 0.00 0.00 0.00 3 1014.8
20260508113524 17 159 4.8 11.3 0.00 0.00 0.00 3 1014.8
20260508113403 17 160 4.8 11.3 0.00 0.00 0.00 3 1014.9
20260508113303 17 159 4.8 11.3 0.00 0.00 0.00 3 1014.8
20260508113203 17 157 4.8 11.3 0.00 0.00 0.00 3 1014.9
20260508113124 17 156 4.8 11.3 0.00 0.00 0.00 3 1014.8
20260508113004 17 155 4.8 11.3 0.00 0.00 0.00 3 1014.8
20260508112903 17 158 4.8 11.3 0.00 0.00 0.00 3 1014.8
20260508112803 17 160 6.4 11.3 0.00 0.00 0.00 3 1014.7
20260508112703 17 161 6.4 11.3 0.00 0.00 0.00 3 1014.7
20260508112603 17 160 4.8 11.3 0.00 0.00 0.00 3 1014.7
20260508112524 17 158 4.8 11.3 0.00 0.00 0.00 3 1014.7
20260508112403 17 156 4.8 11.3 0.00 0.00 0.00 2 1014.6
20260508112306 17 156 4.8 11.3 0.00 0.00 0.00 2 1014.7
20260508112203 17 156 4.8 11.3 0.00 0.00 0.00 3 1014.6
20260508112104 17 159 4.8 11.3 0.00 0.00 0.00 4 1014.6
20260508112003 17 159 4.8 11.3 0.00 0.00 0.00 4 1014.6
20260508111903 17 158 4.8 11.3 0.00 0.00 0.00 4 1014.6
20260508111803 17 157 4.8 11.3 0.00 0.00 0.00 3 1014.7
20260508111724 17 158 4.8 8.0 0.00 0.00 0.00 3 1014.6
20260508111604 17 163 4.8 8.0 0.00 0.00 0.00 3 1014.7
20260508111504 17 167 4.8 9.7 0.00 0.00 0.00 3 1014.6
20260508111404 17 171 4.8 9.7 0.00 0.00 0.00 3 1014.6
20260508111304 17 172 4.8 9.7 0.00 0.00 0.00 4 1014.6
20260508111205 17 175 4.8 9.7 0.00 0.00 0.00 3 1014.5
20260508111105 17 175 4.8 9.7 0.00 0.00 0.00 4 1014.5
20260508111025 17 176 4.8 9.7 0.00 0.00 0.00 4 1014.4
20260508110925 17 176 4.8 9.7 0.00 0.00 0.00 3 1014.4
20260508110804 17 177 4.8 9.7 0.00 0.00 0.00 4 1014.3
20260508110704 17 175 4.8 9.7 0.00 0.00 0.00 5 1014.3
20260508110604 17 173 4.8 9.7 0.00 0.00 0.00 5 1014.3
20260508110505 17 173 4.8 8.0 0.00 0.00 0.00 4 1014.3
20260508110404 17 170 3.2 6.4 0.00 0.00 0.00 4 1014.3
20260508110304 17 172 3.2 6.4 0.00 0.00 0.00 4 1014.3
20260508110204 17 173 3.2 6.4 0.00 0.00 0.00 5 1014.4
20260508110104 17 174 4.8 8.0 0.00 0.00 0.00 5 1014.4
20260508110025 17 173 4.8 9.7 0.00 0.00 0.00 5 1014.4
20260508105904 17 172 4.8 12.9 0.00 0.00 0.00 6 1014.4
20260508105804 17 171 4.8 12.9 0.00 0.00 0.00 6 1014.4
20260508105704 17 172 4.8 12.9 0.00 0.00 0.00 5 1014.5
20260508105604 17 171 4.8 12.9 0.00 0.00 0.00 6 1014.5
20260508105504 17 167 4.8 12.9 0.00 0.00 0.00 5 1014.5
20260508105404 17 166 4.8 12.9 0.00 0.00 0.00 6 1014.4
20260508105325 17 167 6.4 12.9 0.00 0.00 0.00 6 1014.5
20260508105225 17 167 6.4 12.9 0.00 0.00 0.00 7 1014.4
20260508105104 17 166 6.4 12.9 0.00 0.00 0.00 6 1014.4
20260508105004 17 165 6.4 12.9 0.00 0.00 0.00 7 1014.4
20260508104904 17 166 6.4 12.9 0.00 0.00 0.00 6 1014.4
20260508104804 17 164 6.4 12.9 0.00 0.00 0.00 7 1014.4
20260508104705 17 164 4.8 12.9 0.00 0.00 0.00 6 1014.5
20260508104605 17 166 4.8 12.9 0.00 0.00 0.00 6 1014.4
20260508104504 17 169 4.8 12.9 0.00 0.00 0.00 7 1014.5
20260508104405 17 168 4.8 12.9 0.00 0.00 0.00 7 1014.4
20260508104325 17 167 4.8 12.9 0.00 0.00 0.00 7 1014.4
20260508104204 17 165 4.8 12.9 0.00 0.00 0.00 8 1014.3
20260508104104 17 166 6.4 12.9 0.00 0.00 0.00 7 1014.3
20260508104004 17 168 6.4 12.9 0.00 0.00 0.00 7 1014.3
20260508103904 17 168 6.4 12.9 0.00 0.00 0.00 7 1014.3
20260508103804 17 172 6.4 12.9 0.00 0.00 0.00 7 1014.2
20260508103704 17 170 6.4 12.9 0.00 0.00 0.00 7 1014.3
20260508103604 17 170 6.4 12.9 0.00 0.00 0.00 7 1014.2
20260508103526 17 167 6.4 12.9 0.00 0.00 0.00 7 1014.2
20260508103404 17 168 6.4 12.9 0.00 0.00 0.00 7 1014.3
20260508103326 17 167 6.4 12.9 0.00 0.00 0.00 8 1014.3
20260508103204 17 167 6.4 12.9 0.00 0.00 0.00 8 1014.3
20260508103104 17 167 6.4 12.9 0.00 0.00 0.00 8 1014.3
20260508103004 17 166 6.4 12.9 0.00 0.00 0.00 8 1014.3
20260508102904 17 164 6.4 12.9 0.00 0.00 0.00 8 1014.3
20260508102804 17 163 6.4 12.9 0.00 0.00 0.00 8 1014.4
20260508102704 17 164 6.4 12.9 0.00 0.00 0.00 8 1014.3
20260508102625 17 163 6.4 12.9 0.00 0.00 0.00 7 1014.4
20260508102504 17 164 8.0 14.5 0.00 0.00 0.00 7 1014.4
20260508102404 17 165 8.0 14.5 0.00 0.00 0.00 7 1014.4
20260508102306 17 166 8.0 14.5 0.00 0.00 0.00 8 1014.4
20260508102226 17 166 8.0 14.5 0.00 0.00 0.00 8 1014.4
20260508102104 17 167 8.0 14.5 0.00 0.00 0.00 8 1014.5
20260508102026 17 167 8.0 14.5 0.00 0.00 0.00 8 1014.5
20260508101904 17 167 6.4 14.5 0.00 0.00 0.00 8 1014.6
20260508101804 17 168 8.0 14.5 0.00 0.00 0.00 8 1014.6
20260508101725 17 167 6.4 14.5 0.00 0.00 0.00 8 1014.6
20260508101604 17 168 6.4 14.5 0.00 0.00 0.00 8 1014.6
20260508101504 17 169 6.4 12.9 0.00 0.00 0.00 8 1014.7
20260508101425 17 166 6.4 14.5 0.00 0.00 0.00 9 1014.7
20260508101304 17 166 8.0 14.5 0.00 0.00 0.00 9 1014.7
20260508101204 17 165 8.0 14.5 0.00 0.00 0.00 9 1014.8
20260508101104 17 164 8.0 14.5 0.00 0.00 0.00 10 1014.8
20260508101026 17 164 8.0 14.5 0.00 0.00 0.00 10 1014.8
20260508100904 17 165 8.0 14.5 0.00 0.00 0.00 10 1014.8
20260508100804 17 163 8.0 14.5 0.00 0.00 0.00 10 1014.8
20260508100704 17 163 8.0 14.5 0.00 0.00 0.00 11 1014.9
20260508100604 17 162 6.4 14.5 0.00 0.00 0.00 11 1014.9
20260508100504 17 159 6.4 14.5 0.00 0.00 0.00 11 1014.9
20260508100404 17 159 6.4 12.9 0.00 0.00 0.00 11 1014.8
20260508100304 17 158 6.4 12.9 0.00 0.00 0.00 11 1014.8
20260508100204 17 156 6.4 12.9 0.00 0.00 0.00 11 1014.7
20260508100104 17 154 4.8 11.3 0.00 0.00 0.00 11 1014.6
20260508100004 17 152 4.8 11.3 0.00 0.00 0.00 11 1014.6
20260508095925 17 149 4.8 9.7 0.00 0.00 0.00 10 1014.7
20260508095804 17 147 4.8 8.0 0.00 0.00 0.00 11 1014.8
20260508095704 17 145 3.2 8.0 0.00 0.00 0.00 10 1014.9
20260508095625 17 144 4.8 8.0 0.00 0.00 0.00 11 1014.9
20260508095504 17 145 4.8 8.0 0.00 0.00 0.00 11 1015.0
20260508095404 17 146 4.8 8.0 0.00 0.00 0.00 10 1014.9
20260508095306 17 146 3.2 8.0 0.00 0.00 0.00 10 1015.0
20260508095204 17 146 3.2 8.0 0.00 0.00 0.00 9 1015.0
20260508095104 17 146 3.2 8.0 0.00 0.00 0.00 9 1015.0
20260508095004 17 146 3.2 8.0 0.00 0.00 0.00 9 1015.0
20260508094905 17 146 3.2 8.0 0.00 0.00 0.00 9 1015.0
20260508094804 17 146 3.2 8.0 0.00 0.00 0.00 10 1015.0
20260508094725 17 146 3.2 8.0 0.00 0.00 0.00 9 1015.0
20260508094604 17 147 3.2 8.0 0.00 0.00 0.00 10 1015.0
20260508094525 17 146 3.2 8.0 0.00 0.00 0.00 10 1015.0
20260508094404 17 145 1.6 6.4 0.00 0.00 0.00 9 1015.0
20260508094326 17 145 1.6 6.4 0.00 0.00 0.00 9 1015.0
20260508094204 17 144 1.6 6.4 0.00 0.00 0.00 9 1015.0
20260508094104 17 144 1.6 6.4 0.00 0.00 0.00 10 1015.0
20260508094005 17 144 1.6 6.4 0.00 0.00 0.00 9 1015.0
20260508093904 17 144 3.2 6.4 0.00 0.00 0.00 9 1015.0
20260508093804 17 145 3.2 6.4 0.00 0.00 0.00 9 1015.0
20260508093725 17 145 3.2 6.4 0.00 0.00 0.00 9 1015.0
20260508093625 17 145 3.2 6.4 0.00 0.00 0.00 9 1015.0
20260508093504 17 146 3.2 6.4 0.00 0.00 0.00 8 1014.9
20260508093404 17 147 3.2 6.4 0.00 0.00 0.00 8 1014.9
20260508093304 17 147 3.2 6.4 0.00 0.00 0.00 8 1014.9
20260508093204 17 148 3.2 6.4 0.00 0.00 0.00 8 1015.0
20260508093125 17 148 3.2 6.4 0.00 0.00 0.00 9 1015.0
20260508093004 17 149 3.2 6.4 0.00 0.00 0.00 9 1014.9
20260508092925 17 149 3.2 6.4 0.00 0.00 0.00 8 1014.9
20260508092804 17 149 3.2 6.4 0.00 0.00 0.00 8 1014.8
20260508092725 17 150 3.2 6.4 0.00 0.00 0.00 8 1014.8
20260508092605 17 150 3.2 6.4 0.00 0.00 0.00 8 1014.8
20260508092504 17 151 3.2 6.4 0.00 0.00 0.00 8 1014.8
20260508092404 17 152 3.2 6.4 0.00 0.00 0.00 8 1014.8
20260508092312 17 153 3.2 6.4 0.00 0.00 0.00 8 1014.8
20260508092225 17 154 3.2 6.4 0.00 0.00 0.00 8 1014.8
20260508092104 17 155 3.2 6.4 0.00 0.00 0.00 7 1014.6
20260508092005 17 155 3.2 6.4 0.00 0.00 0.00 8 1014.6
20260508091925 17 156 3.2 6.4 0.00 0.00 0.00 8 1014.5
20260508091804 17 155 3.2 8.0 0.00 0.00 0.00 8 1014.6
20260508091704 17 155 3.2 8.0 0.00 0.00 0.00 7 1014.5
20260508091604 17 154 3.2 8.0 0.00 0.00 0.00 7 1014.5
20260508091504 17 152 3.2 8.0 0.00 0.00 0.00 7 1014.5
20260508091425 17 151 3.2 8.0 0.00 0.00 0.00 7 1014.4
20260508091304 17 149 3.2 8.0 0.00 0.00 0.00 7 1014.4
20260508091204 17 148 3.2 8.0 0.00 0.00 0.00 7 1014.4
20260508091105 17 147 3.2 8.0 0.00 0.00 0.00 7 1014.4
20260508091025 17 145 3.2 8.0 0.00 0.00 0.00 7 1014.4
20260508090904 17 143 3.2 8.0 0.00 0.00 0.00 7 1014.4
20260508090804 17 140 3.2 6.4 0.00 0.00 0.00 6 1014.4
20260508090704 17 140 3.2 6.4 0.00 0.00 0.00 6 1014.5
20260508090605 17 139 3.2 6.4 0.00 0.00 0.00 6 1014.5
20260508090504 17 139 3.2 6.4 0.00 0.00 0.00 6 1014.6
20260508090404 17 138 3.2 6.4 0.00 0.00 0.00 6 1014.5
20260508090304 17 138 3.2 6.4 0.00 0.00 0.00 7 1014.5
20260508090204 17 138 3.2 6.4 0.00 0.00 0.00 7 1014.5
20260508090104 17 137 3.2 6.4 0.00 0.00 0.00 7 1014.4
20260508090004 17 137 3.2 6.4 0.00 0.00 0.00 7 1014.5
20260508085904 17 137 3.2 6.4 0.00 0.00 0.00 6 1014.4
20260508085804 17 138 3.2 6.4 0.00 0.00 0.00 7 1014.4
20260508085705 17 139 3.2 6.4 0.00 0.00 0.00 8 1014.4
20260508085604 17 141 3.2 6.4 0.00 0.00 0.00 8 1014.4
20260508085504 17 142 3.2 6.4 0.00 0.00 0.00 8 1014.4
20260508085404 17 145 3.2 6.4 0.00 0.00 0.00 9 1014.5
20260508085307 17 147 3.2 6.4 0.00 0.00 0.00 11 1014.5
20260508085204 17 149 3.2 8.0 0.00 0.00 0.00 11 1014.5
20260508085105 17 153 3.2 8.0 0.00 0.00 0.00 11 1014.5
20260508085004 17 155 3.2 8.0 0.00 0.00 0.00 10 1014.5
20260508084926 17 155 3.2 8.0 0.00 0.00 0.00 11 1014.5
20260508084804 17 156 3.2 8.0 0.00 0.00 0.00 12 1014.5
20260508084704 17 156 3.2 8.0 0.00 0.00 0.00 11 1014.5
20260508084604 17 156 3.2 8.0 0.00 0.00 0.00 12 1014.5
20260508084504 17 155 3.2 8.0 0.00 0.00 0.00 12 1014.5
20260508084426 17 155 3.2 8.0 0.00 0.00 0.00 12 1014.5
20260508084325 17 155 3.2 8.0 0.00 0.00 0.00 13 1014.5
20260508084204 17 155 3.2 8.0 0.00 0.00 0.00 15 1014.6
20260508084104 17 155 3.2 6.4 0.00 0.00 0.00 15 1014.6
20260508084004 17 155 3.2 6.4 0.00 0.00 0.00 15 1014.6
20260508083904 17 156 3.2 6.4 0.00 0.00 0.00 16 1014.5
20260508083825 17 156 3.2 6.4 0.00 0.00 0.00 16 1014.5
20260508083704 17 156 3.2 6.4 0.00 0.00 0.00 17 1014.5
20260508083625 17 156 3.2 6.4 0.00 0.00 0.00 17 1014.5
20260508083525 17 157 3.2 6.4 0.00 0.00 0.00 17 1014.5
20260508083404 17 156 3.2 6.4 0.00 0.00 0.00 17 1014.6
20260508083325 17 157 3.2 6.4 0.00 0.00 0.00 17 1014.6
20260508083205 17 158 3.2 6.4 0.00 0.00 0.00 17 1014.6
20260508083125 17 158 3.2 6.4 0.00 0.00 0.00 17 1014.6
20260508083025 17 158 4.8 6.4 0.00 0.00 0.00 18 1014.6
20260508082904 17 157 4.8 6.4 0.00 0.00 0.00 18 1014.6
20260508082804 17 157 4.8 6.4 0.00 0.00 0.00 19 1014.7
20260508082704 17 157 3.2 6.4 0.00 0.00 0.00 18 1014.8
20260508082604 17 157 4.8 6.4 0.00 0.00 0.00 19 1014.8
20260508082504 17 157 4.8 6.4 0.00 0.00 0.00 18 1014.7
20260508082404 17 156 3.2 6.4 0.00 0.00 0.00 19 1014.8
20260508082306 17 156 3.2 6.4 0.00 0.00 0.00 18 1014.8
20260508082204 17 157 3.2 6.4 0.00 0.00 0.00 18 1014.8
20260508082104 17 161 3.2 6.4 0.00 0.00 0.00 18 1014.8
20260508082004 17 168 3.2 9.7 0.00 0.00 0.00 18 1014.7
20260508081904 17 173 3.2 11.3 0.00 0.00 0.00 17 1014.7
20260508081804 17 177 3.2 11.3 0.00 0.00 0.00 18 1014.7
20260508081704 17 181 3.2 11.3 0.00 0.00 0.00 18 1014.7
20260508081604 17 184 3.2 11.3 0.00 0.00 0.00 18 1014.6
20260508081504 17 187 3.2 11.3 0.00 0.00 0.00 18 1014.7
20260508081404 17 191 3.2 11.3 0.00 0.00 0.00 18 1014.6
20260508081304 17 192 3.2 11.3 0.00 0.00 0.00 17 1014.6
20260508081204 17 192 3.2 11.3 0.00 0.00 0.00 17 1014.6
20260508081104 17 192 3.2 11.3 0.00 0.00 0.00 18 1014.5
20260508081004 17 189 3.2 11.3 0.00 0.00 0.00 18 1014.5
20260508080904 17 188 3.2 11.3 0.00 0.00 0.00 18 1014.4
20260508080804 17 187 3.2 11.3 0.00 0.00 0.00 18 1014.5
20260508080704 17 187 4.8 11.3 0.00 0.00 0.00 18 1014.5
20260508080604 17 189 4.8 11.3 0.00 0.00 0.00 19 1014.5
20260508080505 17 191 4.8 11.3 0.00 0.00 0.00 19 1014.5
20260508080404 17 191 4.8 11.3 0.00 0.00 0.00 19 1014.5
20260508080304 17 194 4.8 11.3 0.00 0.00 0.00 19 1014.5
20260508080204 17 193 4.8 11.3 0.00 0.00 0.00 19 1014.5
20260508080104 17 190 4.8 9.7 0.00 0.00 0.00 18 1014.5
20260508080004 17 192 4.8 9.7 0.00 0.00 0.00 18 1014.5
20260508075925 17 192 4.8 9.7 0.00 0.00 0.00 19 1014.5
20260508075804 17 190 4.8 9.7 0.00 0.00 0.00 19 1014.5
20260508075704 17 189 4.8 9.7 0.00 0.00 0.00 19 1014.5
20260508075604 17 187 4.8 9.7 0.00 0.00 0.00 19 1014.5
20260508075505 17 184 3.2 9.7 0.00 0.00 0.00 19 1014.5
20260508075404 17 183 3.2 9.7 0.00 0.00 0.00 19 1014.5
20260508075308 17 180 3.2 9.7 0.00 0.00 0.00 19 1014.6
20260508075204 17 181 3.2 9.7 0.00 0.00 0.00 19 1014.5
20260508075104 17 183 3.2 9.7 0.00 0.00 0.00 19 1014.5
20260508075004 17 181 3.2 8.0 0.00 0.00 0.00 19 1014.6
20260508074904 17 182 3.2 8.0 0.00 0.00 0.00 19 1014.5
20260508074825 17 183 1.6 8.0 0.00 0.00 0.00 19 1014.6
20260508074704 17 186 1.6 8.0 0.00 0.00 0.00 19 1014.5
20260508074604 17 188 1.6 8.0 0.00 0.00 0.00 19 1014.5
20260508074525 17 186 1.6 8.0 0.00 0.00 0.00 19 1014.4
20260508074404 17 186 1.6 8.0 0.00 0.00 0.00 19 1014.4
20260508074304 17 184 1.6 8.0 0.00 0.00 0.00 19 1014.4
20260508074225 17 184 1.6 8.0 0.00 0.00 0.00 19 1014.3
20260508074104 17 183 1.6 8.0 0.00 0.00 0.00 19 1014.4
20260508074004 17 179 1.6 8.0 0.00 0.00 0.00 19 1014.4
20260508073904 17 179 1.6 8.0 0.00 0.00 0.00 19 1014.3
20260508073804 17 184 3.2 8.0 0.00 0.00 0.00 19 1014.3
20260508073704 17 184 3.2 8.0 0.00 0.00 0.00 19 1014.4
20260508073604 17 183 1.6 8.0 0.00 0.00 0.00 19 1014.4
20260508073504 17 185 1.6 8.0 0.00 0.00 0.00 18 1014.4
20260508073404 17 185 1.6 8.0 0.00 0.00 0.00 18 1014.5
20260508073304 17 187 1.6 8.0 0.00 0.00 0.00 19 1014.4
20260508073204 17 188 1.6 8.0 0.00 0.00 0.00 19 1014.4
20260508073104 17 188 1.6 8.0 0.00 0.00 0.00 18 1014.5
20260508073004 17 191 1.6 8.0 0.00 0.00 0.00 18 1014.5
20260508072925 17 195 0.0 8.0 0.00 0.00 0.00 19 1014.5
20260508072805 17 200 0.0 8.0 0.00 0.00 0.00 18 1014.5
20260508072705 17 192 0.0 4.8 0.00 0.00 0.00 18 1014.5
20260508072604 17 192 0.0 4.8 0.00 0.00 0.00 18 1014.5
20260508072504 17 192 0.0 4.8 0.00 0.00 0.00 18 1014.4
20260508072405 17 192 0.0 4.8 0.00 0.00 0.00 18 1014.4
20260508072307 17 192 0.0 4.8 0.00 0.00 0.00 18 1014.4
20260508072204 17 0 0.0 0.0 0.00 0.00 0.00 17 1014.3
20260508072104 17 0 0.0 0.0 0.00 0.00 0.00 17 1014.3
20260508072005 17 0 0.0 0.0 0.00 0.00 0.00 16 1014.3
20260508071904 17 0 0.0 0.0 0.00 0.00 0.00 16 1014.3
20260508071804 17 0 0.0 0.0 0.00 0.00 0.00 16 1014.4
20260508071725 17 0 0.0 0.0 0.00 0.00 0.00 16 1014.4
20260508071604 17 170 0.0 4.8 0.00 0.00 0.00 16 1014.5
20260508071525 17 170 0.0 4.8 0.00 0.00 0.00 15 1014.6
20260508071404 17 170 0.0 4.8 0.00 0.00 0.00 15 1014.5
20260508071304 17 170 0.0 4.8 0.00 0.00 0.00 14 1014.6
20260508071204 17 170 0.0 4.8 0.00 0.00 0.00 14 1014.5
20260508071104 17 167 1.6 8.0 0.00 0.00 0.00 14 1014.5
20260508071004 17 166 1.6 8.0 0.00 0.00 0.00 14 1014.6
20260508070904 17 164 1.6 8.0 0.00 0.00 0.00 13 1014.7
20260508070804 17 163 1.6 8.0 0.00 0.00 0.00 13 1014.8
20260508070704 17 162 1.6 8.0 0.00 0.00 0.00 13 1014.9
20260508070604 17 161 1.6 8.0 0.00 0.00 0.00 13 1014.9
20260508070504 17 160 1.6 8.0 0.00 0.00 0.00 12 1015.0
20260508070404 17 160 1.6 8.0 0.00 0.00 0.00 12 1015.0
20260508070304 17 160 1.6 8.0 0.00 0.00 0.00 11 1015.1
20260508070204 17 156 0.0 8.0 0.00 0.00 0.00 10 1015.1
20260508070104 17 153 0.0 6.4 0.00 0.00 0.00 11 1015.1
20260508070005 17 152 0.0 6.4 0.00 0.00 0.00 10 1015.1
20260508065904 17 152 0.0 3.2 0.00 0.00 0.00 9 1015.1
20260508065804 17 0 0.0 0.0 0.00 0.00 0.00 10 1015.0
20260508065725 17 0 0.0 0.0 0.00 0.00 0.00 10 1015.1
20260508065604 17 0 0.0 0.0 0.00 0.00 0.00 9 1015.0
20260508065504 17 0 0.0 0.0 0.00 0.00 0.00 10 1015.0
20260508065405 17 0 0.0 0.0 0.00 0.00 0.00 10 1015.0
20260508065307 17 0 0.0 0.0 0.00 0.00 0.00 10 1015.0
20260508065204 17 0 0.0 0.0 0.00 0.00 0.00 10 1015.1
20260508065104 16 151 0.0 3.2 0.00 0.00 0.00 9 1015.1
20260508065004 17 151 0.0 4.8 0.00 0.00 0.00 8 1015.2
20260508064904 16 151 0.0 4.8 0.00 0.00 0.00 8 1015.1
20260508064825 16 151 0.0 4.8 0.00 0.00 0.00 8 1015.1
20260508064705 16 151 0.0 4.8 0.00 0.00 0.00 8 1015.1
20260508064604 16 151 0.0 4.8 0.00 0.00 0.00 7 1015.2
20260508064504 16 151 0.0 4.8 0.00 0.00 0.00 7 1015.2
20260508064404 16 151 0.0 4.8 0.00 0.00 0.00 7 1015.2
20260508064304 16 150 0.0 4.8 0.00 0.00 0.00 7 1015.2
20260508064204 16 150 0.0 4.8 0.00 0.00 0.00 7 1015.3
20260508064104 16 150 0.0 4.8 0.00 0.00 0.00 6 1015.3
20260508064004 16 150 0.0 4.8 0.00 0.00 0.00 6 1015.4
20260508063904 16 150 0.0 4.8 0.00 0.00 0.00 6 1015.4
20260508063804 16 150 0.0 4.8 0.00 0.00 0.00 5 1015.5
20260508063704 16 150 0.0 4.8 0.00 0.00 0.00 5 1015.5
20260508063604 16 150 0.0 4.8 0.00 0.00 0.00 5 1015.6
20260508063504 17 150 0.0 4.8 0.00 0.00 0.00 5 1015.6
20260508063404 16 149 0.0 4.8 0.00 0.00 0.00 5 1015.7
20260508063304 16 148 0.0 4.8 0.00 0.00 0.00 5 1015.7
20260508063204 16 146 0.0 4.8 0.00 0.00 0.00 5 1015.7
20260508063104 16 146 0.0 4.8 0.00 0.00 0.00 6 1015.7
20260508063004 16 146 0.0 4.8 0.00 0.00 0.00 5 1015.8
20260508062904 16 146 0.0 4.8 0.00 0.00 0.00 5 1015.8
20260508062804 16 146 0.0 4.8 0.00 0.00 0.00 5 1015.8
20260508062704 16 146 0.0 4.8 0.00 0.00 0.00 5 1015.9
20260508062604 16 146 0.0 4.8 0.00 0.00 0.00 4 1015.9
20260508062504 16 146 0.0 4.8 0.00 0.00 0.00 5 1015.9
20260508062404 16 146 0.0 4.8 0.00 0.00 0.00 5 1015.9
20260508062306 16 146 0.0 4.8 0.00 0.00 0.00 5 1015.9
20260508062205 16 146 0.0 1.6 0.00 0.00 0.00 4 1015.8
20260508062104 16 146 0.0 1.6 0.00 0.00 0.00 3 1015.8
20260508062004 16 146 0.0 1.6 0.00 0.00 0.00 4 1015.7
20260508061904 16 146 0.0 1.6 0.00 0.00 0.00 4 1015.6
20260508061825 16 146 0.0 1.6 0.00 0.00 0.00 5 1015.5
20260508061704 16 0 0.0 0.0 0.00 0.00 0.00 5 1015.4
20260508061604 16 0 0.0 0.0 0.00 0.00 0.00 5 1015.3
20260508061504 16 146 0.0 1.6 0.00 0.00 0.00 5 1015.4
20260508061404 16 146 0.0 1.6 0.00 0.00 0.00 6 1015.3
20260508061304 16 146 0.0 1.6 0.00 0.00 0.00 6 1015.2
20260508061204 16 146 0.0 1.6 0.00 0.00 0.00 6 1015.3
20260508061104 16 146 0.0 1.6 0.00 0.00 0.00 7 1015.2
20260508061004 16 146 0.0 1.6 0.00 0.00 0.00 7 1015.2
20260508060904 16 146 0.0 1.6 0.00 0.00 0.00 7 1015.2
20260508060804 16 146 0.0 1.6 0.00 0.00 0.00 7 1015.2
20260508060704 16 146 0.0 1.6 0.00 0.00 0.00 7 1015.2
20260508060604 16 146 0.0 1.6 0.00 0.00 0.00 7 1015.2
20260508060504 16 146 0.0 1.6 0.00 0.00 0.00 7 1015.2
20260508060404 16 146 0.0 1.6 0.00 0.00 0.00 8 1015.2
20260508060304 16 146 0.0 1.6 0.00 0.00 0.00 8 1015.2
20260508060204 16 146 0.0 1.6 0.00 0.00 0.00 8 1015.3
20260508060104 16 0 0.0 0.0 0.00 0.00 0.00 8 1015.3
20260508060005 16 0 0.0 0.0 0.00 0.00 0.00 8 1015.4
20260508055904 16 0 0.0 0.0 0.00 0.00 0.00 8 1015.4
20260508055804 16 0 0.0 0.0 0.00 0.00 0.00 8 1015.4
20260508055704 16 0 0.0 0.0 0.00 0.00 0.00 8 1015.5
20260508055604 16 0 0.0 0.0 0.00 0.00 0.00 8 1015.4
20260508055504 16 0 0.0 0.0 0.00 0.00 0.00 8 1015.4
20260508055404 16 0 0.0 0.0 0.00 0.00 0.00 9 1015.4
20260508055326 16 0 0.0 0.0 0.00 0.00 0.00 8 1015.4
20260508055204 16 0 0.0 0.0 0.00 0.00 0.00 8 1015.4
20260508055104 16 0 0.0 0.0 0.00 0.00 0.00 8 1015.4
20260508055004 16 0 0.0 0.0 0.00 0.00 0.00 9 1015.5
20260508054904 16 0 0.0 0.0 0.00 0.00 0.00 9 1015.6
20260508054804 16 0 0.0 0.0 0.00 0.00 0.00 9 1015.6
20260508054704 16 0 0.0 0.0 0.00 0.00 0.00 9 1015.7
20260508054604 16 0 0.0 0.0 0.00 0.00 0.00 10 1015.7
20260508054504 17 120 0.0 1.6 0.00 0.00 0.00 10 1015.8
20260508054404 17 120 0.0 1.6 0.00 0.00 0.00 10 1015.7
20260508054304 17 120 0.0 1.6 0.00 0.00 0.00 10 1015.7
20260508054204 17 120 0.0 1.6 0.00 0.00 0.00 11 1015.7
20260508054125 17 120 0.0 1.6 0.00 0.00 0.00 11 1015.7
20260508054004 17 120 0.0 1.6 0.00 0.00 0.00 11 1015.6
20260508053904 17 120 0.0 1.6 0.00 0.00 0.00 11 1015.6
20260508053804 17 120 0.0 1.6 0.00 0.00 0.00 12 1015.6
20260508053704 17 120 0.0 1.6 0.00 0.00 0.00 12 1015.7
20260508053625 17 120 0.0 1.6 0.00 0.00 0.00 12 1015.7
20260508053504 17 0 0.0 0.0 0.00 0.00 0.00 12 1015.7
20260508053404 17 180 0.0 8.0 0.00 0.00 0.00 13 1015.7
20260508053304 17 180 0.0 8.0 0.00 0.00 0.00 13 1015.7
20260508053204 17 180 0.0 8.0 0.00 0.00 0.00 13 1015.6
20260508053125 17 180 0.0 8.0 0.00 0.00 0.00 13 1015.4
20260508053004 17 180 0.0 8.0 0.00 0.00 0.00 13 1015.3
20260508052904 17 180 0.0 8.0 0.00 0.00 0.00 13 1015.1
20260508052804 17 180 0.0 8.0 0.00 0.00 0.00 14 1015.0
20260508052704 17 180 0.0 8.0 0.00 0.00 0.00 14 1014.8
20260508052604 17 180 0.0 8.0 0.00 0.00 0.00 14 1014.7
20260508052504 17 180 0.0 8.0 0.00 0.00 0.00 14 1014.6
20260508052404 17 0 0.0 0.0 0.00 0.00 0.00 14 1014.6
20260508052307 17 0 0.0 0.0 0.00 0.00 0.00 14 1014.6
20260508052204 17 0 0.0 0.0 0.00 0.00 0.00 14 1014.7
20260508052125 17 0 0.0 0.0 0.00 0.00 0.00 14 1014.7
20260508052004 17 0 0.0 0.0 0.00 0.00 0.00 14 1014.8
20260508051904 17 0 0.0 0.0 0.00 0.00 0.00 14 1014.8
20260508051825 17 0 0.0 0.0 0.00 0.00 0.00 14 1014.9
20260508051704 17 0 0.0 0.0 0.00 0.00 0.00 14 1014.9
20260508051626 17 0 0.0 0.0 0.00 0.00 0.00 14 1014.9
20260508051504 17 0 0.0 0.0 0.00 0.00 0.00 14 1015.0
20260508051404 17 0 0.0 0.0 0.00 0.00 0.00 14 1015.1
20260508051304 17 0 0.0 0.0 0.00 0.00 0.00 14 1015.1
20260508051204 17 0 0.0 0.0 0.00 0.00 0.00 14 1015.2
20260508051104 17 0 0.0 0.0 0.00 0.00 0.00 14 1015.3
20260508051025 17 0 0.0 0.0 0.00 0.00 0.00 14 1015.3
20260508050904 17 0 0.0 0.0 0.00 0.00 0.00 14 1015.4
20260508050804 17 0 0.0 0.0 0.00 0.00 0.00 13 1015.4
20260508050704 17 139 0.0 1.6 0.00 0.00 0.00 12 1015.5
20260508050604 17 139 0.0 1.6 0.00 0.00 0.00 12 1015.6
20260508050525 17 139 0.0 1.6 0.00 0.00 0.00 13 1015.7
20260508050404 17 139 0.0 1.6 0.00 0.00 0.00 13 1015.8
20260508050304 17 139 0.0 1.6 0.00 0.00 0.00 13 1015.9
20260508050204 17 139 0.0 1.6 0.00 0.00 0.00 13 1015.9
20260508050104 17 139 0.0 1.6 0.00 0.00 0.00 13 1016.0
20260508050004 17 139 0.0 1.6 0.00 0.00 0.00 13 1016.0
20260508045904 17 139 0.0 1.6 0.00 0.00 0.00 14 1016.0
20260508045804 17 139 0.0 1.6 0.00 0.00 0.00 14 1016.0
20260508045704 17 0 0.0 0.0 0.00 0.00 0.00 14 1016.0
20260508045604 17 0 0.0 0.0 0.00 0.00 0.00 15 1016.0
20260508045504 17 0 0.0 0.0 0.00 0.00 0.00 15 1016.0
20260508045404 17 0 0.0 0.0 0.00 0.00 0.00 16 1015.9
20260508045307 17 0 0.0 0.0 0.00 0.00 0.00 16 1015.8
20260508045204 17 0 0.0 0.0 0.00 0.00 0.00 17 1015.7
20260508045104 17 0 0.0 0.0 0.00 0.00 0.00 18 1015.5
20260508045004 17 0 0.0 0.0 0.00 0.00 0.00 18 1015.4
20260508044904 17 0 0.0 0.0 0.00 0.00 0.00 18 1015.3
20260508044804 17 0 0.0 0.0 0.00 0.00 0.00 19 1015.2
20260508044725 17 0 0.0 0.0 0.00 0.00 0.00 19 1015.1
20260508044604 17 0 0.0 0.0 0.00 0.00 0.00 19 1015.1
20260508044504 17 0 0.0 0.0 0.00 0.00 0.00 20 1015.1
20260508044404 17 0 0.0 0.0 0.00 0.00 0.00 20 1015.1
20260508044304 17 0 0.0 0.0 0.00 0.00 0.00 20 1015.1
20260508044225 17 0 0.0 0.0 0.00 0.00 0.00 20 1015.1
20260508044104 17 0 0.0 0.0 0.00 0.00 0.00 21 1015.1
20260508044004 17 0 0.0 0.0 0.00 0.00 0.00 20 1015.1
20260508043904 17 0 0.0 0.0 0.00 0.00 0.00 20 1015.1
20260508043825 17 0 0.0 0.0 0.00 0.00 0.00 20 1015.1
20260508043704 17 0 0.0 0.0 0.00 0.00 0.00 21 1015.1
20260508043604 17 0 0.0 0.0 0.00 0.00 0.00 21 1015.1
20260508043504 17 0 0.0 0.0 0.00 0.00 0.00 21 1015.1
20260508043404 17 0 0.0 0.0 0.00 0.00 0.00 21 1015.2
20260508043304 17 0 0.0 0.0 0.00 0.00 0.00 20 1015.2
20260508043204 17 0 0.0 0.0 0.00 0.00 0.00 21 1015.3
20260508043104 17 0 0.0 0.0 0.00 0.00 0.00 21 1015.4
20260508043004 17 0 0.0 0.0 0.00 0.00 0.00 21 1015.4
20260508042904 17 0 0.0 0.0 0.00 0.00 0.00 21 1015.5
20260508042805 17 0 0.0 0.0 0.00 0.00 0.00 21 1015.5
20260508042704 17 0 0.0 0.0 0.00 0.00 0.00 21 1015.5
20260508042604 17 0 0.0 0.0 0.00 0.00 0.00 21 1015.5
20260508042504 17 0 0.0 0.0 0.00 0.00 0.00 21 1015.4
20260508042404 17 0 0.0 0.0 0.00 0.00 0.00 22 1015.5
20260508042307 17 0 0.0 0.0 0.00 0.00 0.00 22 1015.5
20260508042204 17 0 0.0 0.0 0.00 0.00 0.00 22 1015.5
20260508042104 17 0 0.0 0.0 0.00 0.00 0.00 22 1015.5
20260508042004 17 0 0.0 0.0 0.00 0.00 0.00 22 1015.5
20260508041904 17 0 0.0 0.0 0.00 0.00 0.00 22 1015.7
20260508041804 17 0 0.0 0.0 0.00 0.00 0.00 22 1015.7
20260508041705 17 0 0.0 0.0 0.00 0.00 0.00 21 1015.8
20260508041604 17 0 0.0 0.0 0.00 0.00 0.00 21 1015.8
20260508041505 17 0 0.0 0.0 0.00 0.00 0.00 21 1015.8
20260508041404 17 0 0.0 0.0 0.00 0.00 0.00 21 1015.9
20260508041304 17 0 0.0 0.0 0.00 0.00 0.00 21 1015.9
20260508041204 17 0 0.0 0.0 0.00 0.00 0.00 21 1015.9
20260508041104 17 0 0.0 0.0 0.00 0.00 0.00 21 1015.9
20260508041004 17 0 0.0 0.0 0.00 0.00 0.00 21 1015.8
20260508040904 17 0 0.0 0.0 0.00 0.00 0.00 21 1015.8
20260508040804 17 0 0.0 0.0 0.00 0.00 0.00 21 1015.7
20260508040704 17 0 0.0 0.0 0.00 0.00 0.00 21 1015.7
20260508040625 17 0 0.0 0.0 0.00 0.00 0.00 21 1015.7
20260508040504 17 0 0.0 0.0 0.00 0.00 0.00 20 1015.7
20260508040425 17 0 0.0 0.0 0.00 0.00 0.00 20 1015.6
20260508040325 17 0 0.0 0.0 0.00 0.00 0.00 20 1015.6
20260508040204 17 0 0.0 0.0 0.00 0.00 0.00 20 1015.7
20260508040104 17 0 0.0 0.0 0.00 0.00 0.00 22 1015.6
20260508040005 17 0 0.0 0.0 0.00 0.00 0.00 22 1015.7
20260508035904 17 0 0.0 0.0 0.00 0.00 0.00 22 1015.7
20260508035825 17 0 0.0 0.0 0.00 0.00 0.00 22 1015.7
20260508035704 17 0 0.0 0.0 0.00 0.00 0.00 22 1015.7
20260508035604 17 0 0.0 0.0 0.00 0.00 0.00 23 1015.8
20260508035504 17 0 0.0 0.0 0.00 0.00 0.00 23 1015.8
20260508035404 17 0 0.0 0.0 0.00 0.00 0.00 24 1015.8
20260508035306 17 0 0.0 0.0 0.00 0.00 0.00 24 1015.9
20260508035204 17 0 0.0 0.0 0.00 0.00 0.00 24 1015.8
20260508035104 17 0 0.0 0.0 0.00 0.00 0.00 24 1015.9
20260508035004 17 0 0.0 0.0 0.00 0.00 0.00 24 1016.0
20260508034904 17 0 0.0 0.0 0.00 0.00 0.00 24 1016.0
20260508034804 17 0 0.0 0.0 0.00 0.00 0.00 24 1016.1
20260508034704 17 0 0.0 0.0 0.00 0.00 0.00 24 1016.2
20260508034604 17 0 0.0 0.0 0.00 0.00 0.00 24 1016.2
20260508034525 17 0 0.0 0.0 0.00 0.00 0.00 24 1016.3
20260508034404 17 0 0.0 0.0 0.00 0.00 0.00 24 1016.3
20260508034304 17 0 0.0 0.0 0.00 0.00 0.00 23 1016.4
20260508034204 17 0 0.0 0.0 0.00 0.00 0.00 22 1016.5
20260508034104 17 0 0.0 0.0 0.00 0.00 0.00 22 1016.6
20260508034004 17 0 0.0 0.0 0.00 0.00 0.00 22 1016.7
20260508033904 17 0 0.0 0.0 0.00 0.00 0.00 21 1016.7
20260508033804 17 0 0.0 0.0 0.00 0.00 0.00 21 1016.8
20260508033704 17 0 0.0 0.0 0.00 0.00 0.00 21 1016.8
20260508033604 17 0 0.0 0.0 0.00 0.00 0.00 21 1016.8
20260508033504 17 0 0.0 0.0 0.00 0.00 0.00 21 1016.7
20260508033404 17 0 0.0 0.0 0.00 0.00 0.00 21 1016.6
20260508033304 17 0 0.0 0.0 0.00 0.00 0.00 21 1016.6
20260508033204 17 0 0.0 0.0 0.00 0.00 0.00 21 1016.5
20260508033104 17 0 0.0 0.0 0.00 0.00 0.00 21 1016.5
20260508033004 17 0 0.0 0.0 0.00 0.00 0.00 21 1016.5
20260508032925 17 0 0.0 0.0 0.00 0.00 0.00 21 1016.5
20260508032804 17 0 0.0 0.0 0.00 0.00 0.00 21 1016.4
20260508032704 17 0 0.0 0.0 0.00 0.00 0.00 21 1016.4
20260508032604 17 0 0.0 0.0 0.00 0.00 0.00 22 1016.4
20260508032504 17 0 0.0 0.0 0.00 0.00 0.00 22 1016.4
20260508032404 17 0 0.0 0.0 0.00 0.00 0.00 22 1016.3
20260508032306 17 0 0.0 0.0 0.00 0.00 0.00 22 1016.3
20260508032204 17 0 0.0 0.0 0.00 0.00 0.00 22 1016.2
20260508032104 17 0 0.0 0.0 0.00 0.00 0.00 22 1016.2
20260508032004 17 0 0.0 0.0 0.00 0.00 0.00 22 1016.2
20260508031904 17 0 0.0 0.0 0.00 0.00 0.00 23 1016.2
20260508031825 17 0 0.0 0.0 0.00 0.00 0.00 22 1016.1
20260508031704 17 0 0.0 0.0 0.00 0.00 0.00 22 1016.0
20260508031604 17 0 0.0 0.0 0.00 0.00 0.00 23 1016.0
20260508031504 17 0 0.0 0.0 0.00 0.00 0.00 23 1015.9
20260508031404 17 0 0.0 0.0 0.00 0.00 0.00 23 1015.8
20260508031304 17 0 0.0 0.0 0.00 0.00 0.00 23 1015.7
20260508031204 17 0 0.0 0.0 0.00 0.00 0.00 23 1015.7
20260508031104 17 0 0.0 0.0 0.00 0.00 0.00 23 1015.7
20260508031004 17 0 0.0 0.0 0.00 0.00 0.00 23 1015.7
20260508030904 17 0 0.0 0.0 0.00 0.00 0.00 24 1015.6
20260508030825 17 0 0.0 0.0 0.00 0.00 0.00 24 1015.6
20260508030704 17 0 0.0 0.0 0.00 0.00 0.00 24 1015.5
20260508030625 17 0 0.0 0.0 0.00 0.00 0.00 24 1015.5
20260508030505 17 0 0.0 0.0 0.00 0.00 0.00 24 1015.5
20260508030404 17 0 0.0 0.0 0.00 0.00 0.00 25 1015.5
20260508030304 17 0 0.0 0.0 0.00 0.00 0.00 25 1015.6
20260508030204 17 0 0.0 0.0 0.00 0.00 0.00 25 1015.6
20260508030104 17 0 0.0 0.0 0.00 0.00 0.00 25 1015.6
20260508030004 17 0 0.0 0.0 0.00 0.00 0.00 25 1015.7
20260508025925 17 0 0.0 0.0 0.00 0.00 0.00 25 1015.7
20260508025804 17 0 0.0 0.0 0.00 0.00 0.00 25 1015.8
20260508025704 17 0 0.0 0.0 0.00 0.00 0.00 25 1015.8
20260508025604 17 0 0.0 0.0 0.00 0.00 0.00 25 1015.8
20260508025504 17 0 0.0 0.0 0.00 0.00 0.00 25 1015.8
20260508025404 17 0 0.0 0.0 0.00 0.00 0.00 26 1015.7
20260508025306 17 0 0.0 0.0 0.00 0.00 0.00 26 1015.7
20260508025225 17 0 0.0 0.0 0.00 0.00 0.00 26 1015.7
20260508025104 17 0 0.0 0.0 0.00 0.00 0.00 26 1015.7
20260508025004 17 0 0.0 0.0 0.00 0.00 0.00 26 1015.6
20260508024904 17 0 0.0 0.0 0.00 0.00 0.00 26 1015.6
20260508024804 17 0 0.0 0.0 0.00 0.00 0.00 26 1015.5
20260508024704 17 0 0.0 0.0 0.00 0.00 0.00 25 1015.4
20260508024604 17 0 0.0 0.0 0.00 0.00 0.00 25 1015.3
20260508024525 17 0 0.0 0.0 0.00 0.00 0.00 25 1015.2
20260508024404 17 0 0.0 0.0 0.00 0.00 0.00 25 1015.2
20260508024304 17 0 0.0 0.0 0.00 0.00 0.00 25 1015.1
20260508024204 17 0 0.0 0.0 0.00 0.00 0.00 25 1015.0
20260508024104 17 0 0.0 0.0 0.00 0.00 0.00 25 1015.0
20260508024004 17 0 0.0 0.0 0.00 0.00 0.00 25 1014.9
20260508023904 17 0 0.0 0.0 0.00 0.00 0.00 26 1014.7
20260508023804 17 0 0.0 0.0 0.00 0.00 0.00 26 1014.6
20260508023704 17 0 0.0 0.0 0.00 0.00 0.00 26 1014.4
20260508023605 17 0 0.0 0.0 0.00 0.00 0.00 26 1014.4
20260508023525 17 0 0.0 0.0 0.00 0.00 0.00 27 1014.3
20260508023404 17 0 0.0 0.0 0.00 0.00 0.00 28 1014.3
20260508023304 17 0 0.0 0.0 0.00 0.00 0.00 28 1014.3
20260508023225 17 0 0.0 0.0 0.00 0.00 0.00 28 1014.3
20260508023104 17 0 0.0 0.0 0.00 0.00 0.00 28 1014.2
20260508023004 17 0 0.0 0.0 0.00 0.00 0.00 29 1014.2
20260508022904 17 0 0.0 0.0 0.00 0.00 0.00 29 1014.2
20260508022804 17 0 0.0 0.0 0.00 0.00 0.00 30 1014.2
20260508022704 17 0 0.0 0.0 0.00 0.00 0.00 31 1014.2
20260508022626 17 0 0.0 0.0 0.00 0.00 0.00 31 1014.3
20260508022525 17 0 0.0 0.0 0.00 0.00 0.00 31 1014.3
20260508022404 17 0 0.0 0.0 0.00 0.00 0.00 31 1014.3
20260508022307 17 0 0.0 0.0 0.00 0.00 0.00 31 1014.3
20260508022204 17 0 0.0 0.0 0.00 0.00 0.00 32 1014.3
20260508022104 17 0 0.0 0.0 0.00 0.00 0.00 32 1014.3
20260508022005 17 0 0.0 0.0 0.00 0.00 0.00 32 1014.4
20260508021904 17 0 0.0 0.0 0.00 0.00 0.00 32 1014.4
20260508021804 17 202 1.6 9.7 0.00 0.00 0.00 32 1014.4
20260508021704 17 202 1.6 9.7 0.00 0.00 0.00 33 1014.4
20260508021604 17 202 1.6 9.7 0.00 0.00 0.00 32 1014.4
20260508021504 17 202 1.6 9.7 0.00 0.00 0.00 32 1014.4
20260508021425 17 202 1.6 9.7 0.00 0.00 0.00 32 1014.3
20260508021325 17 202 1.6 9.7 0.00 0.00 0.00 33 1014.3
20260508021204 17 202 1.6 9.7 0.00 0.00 0.00 33 1014.3
20260508021104 17 202 1.6 9.7 0.00 0.00 0.00 34 1014.3
20260508021004 17 202 1.6 9.7 0.00 0.00 0.00 34 1014.3
20260508020904 17 202 0.0 9.7 0.00 0.00 0.00 34 1014.3
20260508020825 17 200 0.0 9.7 0.00 0.00 0.00 34 1014.3
20260508020704 17 0 0.0 0.0 0.00 0.00 0.00 34 1014.2
20260508020604 17 0 0.0 0.0 0.00 0.00 0.00 34 1014.2
20260508020525 17 0 0.0 0.0 0.00 0.00 0.00 35 1014.2
20260508020404 17 0 0.0 0.0 0.00 0.00 0.00 34 1014.2
20260508020304 17 0 0.0 0.0 0.00 0.00 0.00 35 1014.3
20260508020204 17 0 0.0 0.0 0.00 0.00 0.00 35 1014.3
20260508020104 17 0 0.0 0.0 0.00 0.00 0.00 35 1014.3
20260508020025 17 0 0.0 0.0 0.00 0.00 0.00 35 1014.3
20260508015925 17 208 0.0 3.2 0.00 0.00 0.00 35 1014.2
20260508015804 17 208 0.0 3.2 0.00 0.00 0.00 35 1014.2
20260508015704 17 208 0.0 3.2 0.00 0.00 0.00 35 1014.2
20260508015604 17 208 0.0 3.2 0.00 0.00 0.00 35 1014.1
20260508015504 17 208 0.0 3.2 0.00 0.00 0.00 35 1014.0
20260508015404 17 208 0.0 3.2 0.00 0.00 0.00 35 1014.0
20260508015306 17 208 0.0 3.2 0.00 0.00 0.00 35 1014.0
20260508015204 17 208 0.0 3.2 0.00 0.00 0.00 36 1014.0
20260508015104 17 208 0.0 3.2 0.00 0.00 0.00 37 1014.1
20260508015004 17 208 0.0 3.2 0.00 0.00 0.00 37 1014.1
20260508014904 17 0 0.0 0.0 0.00 0.00 0.00 37 1014.1
20260508014804 17 0 0.0 0.0 0.00 0.00 0.00 38 1014.1
20260508014704 17 0 0.0 0.0 0.00 0.00 0.00 38 1014.1
20260508014625 17 0 0.0 0.0 0.00 0.00 0.00 39 1014.1
20260508014504 17 0 0.0 0.0 0.00 0.00 0.00 39 1014.0
20260508014404 17 0 0.0 0.0 0.00 0.00 0.00 40 1014.1
20260508014325 17 0 0.0 0.0 0.00 0.00 0.00 40 1014.0
20260508014225 17 0 0.0 0.0 0.00 0.00 0.00 40 1014.0
20260508014105 17 0 0.0 0.0 0.00 0.00 0.00 41 1014.0
20260508014004 17 0 0.0 0.0 0.00 0.00 0.00 41 1014.0
20260508013904 17 0 0.0 0.0 0.00 0.00 0.00 41 1014.0
20260508013804 17 0 0.0 0.0 0.00 0.00 0.00 42 1014.1
20260508013704 17 0 0.0 1.6 0.00 0.00 0.00 42 1014.2
20260508013604 17 0 0.0 1.6 0.00 0.00 0.00 42 1014.2
20260508013504 17 0 0.0 1.6 0.00 0.00 0.00 42 1014.3
20260508013404 17 0 0.0 1.6 0.00 0.00 0.00 43 1014.3
20260508013326 17 0 0.0 1.6 0.00 0.00 0.00 43 1014.4
20260508013204 17 0 0.0 1.6 0.00 0.00 0.00 43 1014.4
20260508013104 17 0 0.0 1.6 0.00 0.00 0.00 44 1014.4
20260508013005 17 0 0.0 1.6 0.00 0.00 0.00 44 1014.3
20260508012904 17 0 0.0 1.6 0.00 0.00 0.00 44 1014.2
20260508012804 17 0 0.0 1.6 0.00 0.00 0.00 45 1014.2
20260508012704 17 0 0.0 0.0 0.00 0.00 0.00 45 1014.3
20260508012604 17 0 0.0 0.0 0.00 0.00 0.00 45 1014.4
20260508012504 17 0 0.0 0.0 0.00 0.00 0.00 45 1014.6
20260508012404 17 0 0.0 0.0 0.00 0.00 0.00 45 1014.8
20260508012307 17 0 0.0 0.0 0.00 0.00 0.00 46 1014.9
20260508012225 17 0 0.0 0.0 0.00 0.00 0.00 46 1015.0
20260508012104 17 0 0.0 0.0 0.00 0.00 0.00 46 1015.1
20260508012025 17 0 0.0 0.0 0.00 0.00 0.00 46 1015.2
20260508011904 17 0 0.0 0.0 0.00 0.00 0.00 46 1015.2
20260508011825 17 0 0.0 0.0 0.00 0.00 0.00 46 1015.2
20260508011704 17 0 0.0 0.0 0.00 0.00 0.00 47 1015.1
20260508011604 17 0 0.0 0.0 0.00 0.00 0.00 47 1015.0
20260508011504 17 0 0.0 0.0 0.00 0.00 0.00 47 1014.8
20260508011404 17 0 0.0 0.0 0.00 0.00 0.00 47 1014.6
20260508011304 17 0 0.0 0.0 0.00 0.00 0.00 47 1014.5
20260508011204 17 0 0.0 0.0 0.00 0.00 0.00 48 1014.4
20260508011104 17 0 0.0 0.0 0.00 0.00 0.00 48 1014.4
20260508011004 17 0 0.0 0.0 0.00 0.00 0.00 48 1014.5
20260508010904 17 0 0.0 0.0 0.00 0.00 0.00 48 1014.5
20260508010804 17 0 0.0 0.0 0.00 0.00 0.00 48 1014.7
20260508010725 17 0 0.0 0.0 0.00 0.00 0.00 48 1014.8
20260508010604 17 0 0.0 0.0 0.00 0.00 0.00 48 1014.9
20260508010525 17 0 0.0 0.0 0.00 0.00 0.00 48 1014.9
20260508010404 17 0 0.0 0.0 0.00 0.00 0.00 49 1014.8
20260508010304 17 0 0.0 0.0 0.00 0.00 0.00 49 1014.6
20260508010204 17 0 0.0 0.0 0.00 0.00 0.00 49 1014.6
20260508010105 17 0 0.0 0.0 0.00 0.00 0.00 49 1014.5
20260508010004 17 0 0.0 0.0 0.00 0.00 0.00 49 1014.5
20260508005925 17 0 0.0 0.0 0.00 0.00 0.00 49 1014.5
20260508005804 17 0 0.0 0.0 0.00 0.00 0.00 49 1014.5
20260508005725 18 0 0.0 0.0 0.00 0.00 0.00 49 1014.6
20260508005604 18 0 0.0 0.0 0.00 0.00 0.00 49 1014.6
20260508005504 18 0 0.0 0.0 0.00 0.00 0.00 49 1014.7
20260508005404 18 0 0.0 0.0 0.00 0.00 0.00 50 1014.8
20260508005306 18 0 0.0 0.0 0.00 0.00 0.00 49 1014.8
20260508005204 18 0 0.0 0.0 0.00 0.00 0.00 50 1014.9
20260508005104 18 212 0.0 3.2 0.00 0.00 0.00 50 1015.1
20260508005004 18 225 0.0 3.2 0.00 0.00 0.00 50 1015.1
20260508004904 18 250 0.0 12.9 0.00 0.00 0.00 50 1015.1
20260508004825 18 250 0.0 12.9 0.00 0.00 0.00 50 1015.1
20260508004704 18 251 0.0 12.9 0.00 0.00 0.00 50 1015.1
20260508004604 18 251 0.0 12.9 0.00 0.00 0.00 50 1015.0
20260508004504 18 251 0.0 12.9 0.00 0.00 0.00 50 1014.9
20260508004404 18 251 0.0 12.9 0.00 0.00 0.00 50 1014.8
20260508004304 18 244 0.0 12.9 0.00 0.00 0.00 50 1014.6
20260508004204 18 244 0.0 12.9 0.00 0.00 0.00 50 1014.5
20260508004104 18 247 0.0 12.9 0.00 0.00 0.00 50 1014.4
20260508004004 18 249 0.0 12.9 0.00 0.00 0.00 50 1014.4
20260508003925 18 260 0.0 12.9 0.00 0.00 0.00 50 1014.4
20260508003825 18 259 0.0 12.9 0.00 0.00 0.00 50 1014.5
20260508003704 18 259 0.0 12.9 0.00 0.00 0.00 50 1014.8
20260508003604 18 259 0.0 12.9 0.00 0.00 0.00 50 1014.9
20260508003525 18 259 0.0 12.9 0.00 0.00 0.00 50 1015.0
20260508003404 18 259 0.0 12.9 0.00 0.00 0.00 50 1015.1
20260508003304 18 263 0.0 12.9 0.00 0.00 0.00 50 1015.1
20260508003204 18 263 0.0 12.9 0.00 0.00 0.00 50 1014.9
20260508003105 18 261 0.0 12.9 0.00 0.00 0.00 50 1014.8
20260508003025 18 261 0.0 12.9 0.00 0.00 0.00 50 1014.7
20260508002904 18 229 0.0 6.4 0.00 0.00 0.00 50 1014.8
20260508002825 18 228 0.0 6.4 0.00 0.00 0.00 50 1015.1
20260508002704 18 221 0.0 6.4 0.00 0.00 0.00 50 1015.4
20260508002625 18 221 0.0 6.4 0.00 0.00 0.00 50 1015.6
20260508002504 18 218 0.0 6.4 0.00 0.00 0.00 51 1015.7
20260508002404 18 211 0.0 6.4 0.00 0.00 0.00 51 1015.8
20260508002307 18 211 0.0 6.4 0.00 0.00 0.00 51 1015.7
20260508002204 18 211 0.0 6.4 0.00 0.00 0.00 51 1015.5
20260508002104 18 214 0.0 6.4 0.00 0.00 0.00 51 1015.3
20260508002004 18 218 0.0 14.5 0.00 0.00 0.00 51 1015.2
20260508001925 18 217 0.0 14.5 0.00 0.00 0.00 51 1015.3
20260508001804 18 216 0.0 14.5 0.00 0.00 0.00 51 1015.5
20260508001704 18 216 0.0 14.5 0.00 0.00 0.00 51 1015.7
20260508001604 18 216 0.0 14.5 0.00 0.00 0.00 51 1015.8
20260508001504 18 217 0.0 14.5 0.00 0.00 0.00 51 1015.8
20260508001404 18 218 0.0 14.5 0.00 0.00 0.00 51 1015.7
20260508001304 18 219 0.0 14.5 0.00 0.00 0.00 51 1015.5
20260508001225 18 219 0.0 14.5 0.00 0.00 0.00 51 1015.5
20260508001125 18 219 0.0 14.5 0.00 0.00 0.00 51 1015.5
20260508001004 18 0 0.0 1.6 0.00 0.00 0.00 51 1015.6
20260508000904 18 0 0.0 1.6 0.00 0.00 0.00 51 1015.7
20260508000804 18 0 0.0 1.6 0.00 0.00 0.00 51 1015.8
20260508000704 18 0 0.0 1.6 0.00 0.00 0.00 51 1015.8
20260508000625 18 0 0.0 1.6 0.00 0.00 0.00 51 1015.8
20260508000504 18 232 0.0 9.7 0.00 0.00 0.00 51 1015.6
20260508000405 18 234 0.0 11.3 0.00 0.00 0.00 51 1015.6
20260508000305 18 234 0.0 11.3 0.00 0.00 0.00 51 1015.7
20260508000205 18 234 0.0 11.3 0.00 0.00 0.00 51 1015.6
20260508000104 18 234 0.0 11.3 0.00 0.00 0.00 51 1015.7
20260508000025 18 234 0.0 11.3 0.00 0.00 0.00 51 1015.6
20260507235904 18 234 0.0 11.3 0.00 0.00 0.00 51 1015.5
20260507235825 18 234 0.0 11.3 0.00 0.00 0.00 51 1015.4
20260507235704 18 234 0.0 11.3 0.00 0.00 0.00 51 1015.3
20260507235625 18 234 0.0 11.3 0.00 0.00 0.00 51 1015.3
20260507235504 18 233 0.0 11.3 0.00 0.00 0.00 51 1015.4
20260507235404 18 0 0.0 0.0 0.00 0.00 0.00 51 1015.5
20260507235306 18 0 0.0 0.0 0.00 0.00 0.00 50 1015.7
20260507235204 18 0 0.0 0.0 0.00 0.00 0.00 51 1015.8
20260507235104 18 0 0.0 0.0 0.00 0.00 0.00 51 1015.8
20260507235004 18 0 0.0 0.0 0.00 0.00 0.00 51 1015.9
20260507234904 18 0 0.0 0.0 0.00 0.00 0.00 51 1015.8
20260507234804 18 0 0.0 0.0 0.00 0.00 0.00 51 1015.8
20260507234704 18 0 0.0 0.0 0.00 0.00 0.00 51 1015.7
20260507234604 18 0 0.0 0.0 0.00 0.00 0.00 51 1015.7
20260507234525 18 0 0.0 0.0 0.00 0.00 0.00 51 1015.7
20260507234404 18 0 0.0 0.0 0.00 0.00 0.00 51 1015.7
20260507234304 18 0 0.0 0.0 0.00 0.00 0.00 51 1015.8
20260507234204 18 0 0.0 0.0 0.00 0.00 0.00 50 1015.8
20260507234104 18 0 0.0 0.0 0.00 0.00 0.00 51 1015.8
20260507234004 18 0 0.0 0.0 0.00 0.00 0.00 51 1015.9
20260507233904 18 0 0.0 0.0 0.00 0.00 0.00 51 1015.9
20260507233804 18 0 0.0 0.0 0.00 0.00 0.00 50 1015.9
20260507233704 18 0 0.0 0.0 0.00 0.00 0.00 51 1015.8
20260507233604 18 0 0.0 0.0 0.00 0.00 0.00 51 1015.9
20260507233504 18 0 0.0 0.0 0.00 0.00 0.00 51 1015.8
20260507233425 18 0 0.0 0.0 0.00 0.00 0.00 51 1015.8
20260507233304 18 220 0.0 8.0 0.00 0.00 0.00 51 1015.8
20260507233204 18 219 1.6 9.7 0.00 0.00 0.00 51 1015.7
20260507233104 18 219 1.6 9.7 0.00 0.00 0.00 51 1015.8
20260507233004 18 219 1.6 9.7 0.00 0.00 0.00 51 1015.8
20260507232904 18 219 1.6 9.7 0.00 0.00 0.00 51 1015.8
20260507232804 18 219 1.6 9.7 0.00 0.00 0.00 51 1015.7
20260507232705 18 219 1.6 9.7 0.00 0.00 0.00 51 1015.6
20260507232604 18 219 1.6 9.7 0.00 0.00 0.00 51 1015.6
20260507232504 18 219 1.6 9.7 0.00 0.00 0.00 51 1015.5
20260507232404 18 219 1.6 9.7 0.00 0.00 0.00 51 1015.5
20260507232306 18 219 0.0 9.7 0.00 0.00 0.00 51 1015.5
20260507232204 18 0 0.0 1.6 0.00 0.00 0.00 51 1015.5
20260507232104 18 0 0.0 1.6 0.00 0.00 0.00 51 1015.7
20260507232004 18 0 0.0 1.6 0.00 0.00 0.00 51 1015.7
20260507231904 18 0 0.0 1.6 0.00 0.00 0.00 51 1015.7
20260507231804 18 0 0.0 1.6 0.00 0.00 0.00 51 1015.7
20260507231704 18 0 0.0 1.6 0.00 0.00 0.00 51 1015.7
20260507231604 18 0 0.0 0.0 0.00 0.00 0.00 51 1015.7
20260507231504 18 0 0.0 0.0 0.00 0.00 0.00 51 1015.8
20260507231404 18 0 0.0 0.0 0.00 0.00 0.00 51 1015.9
20260507231304 18 0 0.0 0.0 0.00 0.00 0.00 51 1016.0
20260507231204 18 0 0.0 0.0 0.00 0.00 0.00 51 1016.0
20260507231104 18 0 0.0 0.0 0.00 0.00 0.00 50 1016.0
20260507231004 18 0 0.0 0.0 0.00 0.00 0.00 50 1016.0
20260507230904 18 0 0.0 0.0 0.00 0.00 0.00 51 1015.9
20260507230805 18 0 0.0 0.0 0.00 0.00 0.00 51 1015.8
20260507230704 18 0 0.0 0.0 0.00 0.00 0.00 51 1015.8
20260507230625 18 0 0.0 0.0 0.00 0.00 0.00 51 1015.7
20260507230504 18 0 0.0 0.0 0.00 0.00 0.00 50 1015.7
20260507230404 18 0 0.0 0.0 0.00 0.00 0.00 50 1015.6
20260507230304 18 0 0.0 0.0 0.00 0.00 0.00 50 1015.6
20260507230204 18 0 0.0 0.0 0.00 0.00 0.00 50 1015.5
20260507230104 18 0 0.0 0.0 0.00 0.00 0.00 50 1015.5
20260507230004 18 0 0.0 0.0 0.00 0.00 0.00 51 1015.5
20260507225905 18 0 0.0 0.0 0.00 0.00 0.00 50 1015.5
20260507225804 18 0 0.0 0.0 0.00 0.00 0.00 51 1015.5
20260507225704 18 0 0.0 0.0 0.00 0.00 0.00 51 1015.5
20260507225604 18 0 0.0 0.0 0.00 0.00 0.00 51 1015.4
20260507225504 18 0 0.0 0.0 0.00 0.00 0.00 51 1015.5
20260507225425 18 182 1.6 8.0 0.00 0.00 0.00 51 1015.5
20260507225325 18 186 1.6 12.9 0.00 0.00 0.00 50 1015.5
20260507225225 18 185 1.6 12.9 0.00 0.00 0.00 50 1015.7
20260507225104 18 192 1.6 12.9 0.00 0.00 0.00 51 1015.7
20260507225025 18 192 1.6 12.9 0.00 0.00 0.00 51 1015.7
20260507224904 18 192 1.6 12.9 0.00 0.00 0.00 51 1015.7
20260507224804 18 192 1.6 12.9 0.00 0.00 0.00 51 1015.7
20260507224705 18 192 1.6 12.9 0.00 0.00 0.00 51 1015.8
20260507224604 18 192 1.6 12.9 0.00 0.00 0.00 51 1015.8
20260507224505 18 192 1.6 12.9 0.00 0.00 0.00 50 1015.9
20260507224404 18 197 1.6 12.9 0.00 0.00 0.00 50 1015.8
20260507224304 18 197 1.6 12.9 0.00 0.00 0.00 50 1015.7
20260507224204 18 202 0.0 9.7 0.00 0.00 0.00 50 1015.7
20260507224104 18 209 0.0 4.8 0.00 0.00 0.00 51 1015.8
20260507224004 18 197 0.0 4.8 0.00 0.00 0.00 50 1015.8
20260507223904 18 197 0.0 4.8 0.00 0.00 0.00 50 1015.9
20260507223804 18 197 0.0 4.8 0.00 0.00 0.00 50 1015.9
20260507223704 18 196 0.0 4.8 0.00 0.00 0.00 50 1016.1
20260507223604 18 196 0.0 4.8 0.00 0.00 0.00 50 1016.1
20260507223504 18 196 0.0 4.8 0.00 0.00 0.00 50 1016.2
20260507223425 18 196 0.0 4.8 0.00 0.00 0.00 50 1016.2
20260507223304 18 196 0.0 4.8 0.00 0.00 0.00 50 1016.3
20260507223225 18 194 0.0 4.8 0.00 0.00 0.00 50 1016.3
20260507223104 18 195 0.0 4.8 0.00 0.00 0.00 50 1016.3
20260507223004 18 196 0.0 4.8 0.00 0.00 0.00 50 1016.3
20260507222904 18 193 0.0 4.8 0.00 0.00 0.00 50 1016.3
20260507222804 18 197 0.0 9.7 0.00 0.00 0.00 50 1016.3
20260507222704 18 197 0.0 9.7 0.00 0.00 0.00 50 1016.3
20260507222604 18 186 0.0 9.7 0.00 0.00 0.00 50 1016.3
20260507222504 18 186 0.0 9.7 0.00 0.00 0.00 50 1016.3
20260507222404 18 186 0.0 9.7 0.00 0.00 0.00 50 1016.4
20260507222306 18 186 0.0 9.7 0.00 0.00 0.00 50 1016.4
20260507222225 18 186 0.0 9.7 0.00 0.00 0.00 50 1016.4
20260507222104 18 184 0.0 9.7 0.00 0.00 0.00 50 1016.3
20260507222004 18 184 0.0 9.7 0.00 0.00 0.00 50 1016.3
20260507221904 18 185 0.0 16.1 0.00 0.00 0.00 50 1016.3
20260507221804 18 180 0.0 16.1 0.00 0.00 0.00 50 1016.2
20260507221704 18 178 0.0 16.1 0.00 0.00 0.00 49 1016.2
20260507221605 18 178 0.0 16.1 0.00 0.00 0.00 50 1016.2
20260507221504 18 181 0.0 16.1 0.00 0.00 0.00 50 1016.2
20260507221404 18 177 0.0 16.1 0.00 0.00 0.00 49 1016.2
20260507221325 18 174 0.0 16.1 0.00 0.00 0.00 50 1016.2
20260507221204 18 171 1.6 16.1 0.00 0.00 0.00 49 1016.2
20260507221104 18 170 1.6 16.1 0.00 0.00 0.00 49 1016.3
20260507221004 18 172 1.6 16.1 0.00 0.00 0.00 49 1016.2
20260507220904 18 170 3.2 14.5 0.00 0.00 0.00 49 1016.2
20260507220804 18 167 3.2 14.5 0.00 0.00 0.00 50 1016.2
20260507220704 18 166 4.8 16.1 0.00 0.00 0.00 49 1016.1
20260507220625 18 169 4.8 16.1 0.00 0.00 0.00 50 1016.1
20260507220525 18 168 4.8 16.1 0.00 0.00 0.00 50 1016.1
20260507220404 18 168 4.8 16.1 0.00 0.00 0.00 49 1016.1
20260507220304 18 169 4.8 16.1 0.00 0.00 0.00 49 1016.1
20260507220204 18 170 4.8 16.1 0.00 0.00 0.00 49 1016.1
20260507220104 19 170 4.8 16.1 0.00 0.00 0.00 49 1016.1
20260507220025 19 171 3.2 16.1 0.00 0.00 0.00 49 1016.1
20260507215904 19 170 3.2 16.1 0.00 0.00 0.00 49 1016.0
20260507215804 19 174 1.6 16.1 0.00 0.00 0.00 49 1016.0
20260507215704 19 175 3.2 14.5 0.00 0.00 0.00 49 1016.0
20260507215604 19 165 3.2 20.9 0.00 0.00 0.00 49 1016.0
20260507215525 19 167 3.2 20.9 0.00 0.00 0.00 49 1016.0
20260507215404 19 162 4.8 20.9 0.00 0.00 0.00 49 1016.0
20260507215325 19 162 4.8 20.9 0.00 0.00 0.00 49 1016.0
20260507215204 19 161 4.8 20.9 0.00 0.00 0.00 49 1016.0
20260507215104 19 161 4.8 20.9 0.00 0.00 0.00 49 1016.0
20260507215004 19 161 4.8 20.9 0.00 0.00 0.00 49 1016.1
20260507214904 19 161 4.8 20.9 0.00 0.00 0.00 49 1016.2
20260507214804 19 161 4.8 20.9 0.00 0.00 0.00 49 1016.2
20260507214704 19 160 4.8 20.9 0.00 0.00 0.00 49 1016.3
20260507214604 19 162 3.2 17.7 0.00 0.00 0.00 49 1016.3
20260507214504 19 164 1.6 17.7 0.00 0.00 0.00 48 1016.2
20260507214404 19 171 1.6 16.1 0.00 0.00 0.00 49 1016.2
20260507214304 19 179 1.6 16.1 0.00 0.00 0.00 48 1016.1
20260507214204 19 196 1.6 11.3 0.00 0.00 0.00 48 1016.1
20260507214104 19 194 1.6 11.3 0.00 0.00 0.00 48 1016.1
20260507214004 19 192 1.6 11.3 0.00 0.00 0.00 48 1016.2
20260507213904 19 194 1.6 11.3 0.00 0.00 0.00 48 1016.1
20260507213804 19 192 1.6 11.3 0.00 0.00 0.00 48 1016.1
20260507213704 19 185 1.6 11.3 0.00 0.00 0.00 48 1016.1
20260507213605 19 185 1.6 11.3 0.00 0.00 0.00 48 1016.0
20260507213525 19 185 1.6 11.3 0.00 0.00 0.00 48 1015.9
20260507213404 19 183 1.6 11.3 0.00 0.00 0.00 47 1015.9
20260507213304 19 176 1.6 11.3 0.00 0.00 0.00 47 1015.8
20260507213204 19 170 1.6 12.9 0.00 0.00 0.00 47 1015.9
20260507213104 19 169 1.6 12.9 0.00 0.00 0.00 47 1015.9
20260507213025 19 169 1.6 12.9 0.00 0.00 0.00 47 1016.0
20260507212905 19 171 1.6 12.9 0.00 0.00 0.00 47 1016.1
20260507212804 19 168 1.6 12.9 0.00 0.00 0.00 48 1016.2
20260507212704 19 173 1.6 12.9 0.00 0.00 0.00 47 1016.1
20260507212625 19 171 1.6 12.9 0.00 0.00 0.00 47 1016.1
20260507212504 19 160 1.6 19.3 0.00 0.00 0.00 47 1016.0
20260507212404 19 160 1.6 19.3 0.00 0.00 0.00 47 1016.0
20260507212325 19 161 1.6 19.3 0.00 0.00 0.00 47 1015.9
20260507212225 18 165 1.6 19.3 0.00 0.00 0.00 47 1015.9
20260507212104 18 169 1.6 19.3 0.00 0.00 0.00 47 1015.8
20260507212025 18 172 1.6 19.3 0.00 0.00 0.00 47 1015.7
20260507211904 18 171 3.2 19.3 0.00 0.00 0.00 47 1015.7
20260507211825 18 170 3.2 19.3 0.00 0.00 0.00 47 1015.7
20260507211704 18 171 3.2 19.3 0.00 0.00 0.00 47 1015.7
20260507211604 18 170 3.2 17.7 0.00 0.00 0.00 47 1015.7
20260507211504 18 174 3.2 14.5 0.00 0.00 0.00 47 1015.7
20260507211404 18 177 3.2 14.5 0.00 0.00 0.00 47 1015.7
20260507211304 18 176 3.2 14.5 0.00 0.00 0.00 48 1015.8
20260507211204 18 174 3.2 14.5 0.00 0.00 0.00 47 1015.8
20260507211104 18 174 3.2 14.5 0.00 0.00 0.00 47 1015.8
20260507211004 18 172 3.2 14.5 0.00 0.00 0.00 47 1015.8
20260507210925 18 173 3.2 14.5 0.00 0.00 0.00 47 1015.9
20260507210825 18 175 3.2 14.5 0.00 0.00 0.00 47 1016.0
20260507210704 18 178 3.2 14.5 0.00 0.00 0.00 47 1016.0
20260507210604 18 179 3.2 14.5 0.00 0.00 0.00 47 1016.1
20260507210504 18 183 1.6 14.5 0.00 0.00 0.00 48 1016.2
20260507210404 18 183 1.6 9.7 0.00 0.00 0.00 47 1016.2
20260507210304 18 184 1.6 9.7 0.00 0.00 0.00 47 1016.3
20260507210204 18 187 1.6 9.7 0.00 0.00 0.00 47 1016.3
20260507210104 18 186 1.6 9.7 0.00 0.00 0.00 47 1016.3
20260507210005 18 186 1.6 9.7 0.00 0.00 0.00 48 1016.4
20260507205904 18 184 1.6 9.7 0.00 0.00 0.00 47 1016.3
20260507205804 18 183 1.6 9.7 0.00 0.00 0.00 48 1016.3
20260507205704 18 181 1.6 9.7 0.00 0.00 0.00 47 1016.3
20260507205604 18 181 0.0 9.7 0.00 0.00 0.00 48 1016.3
20260507205504 18 186 0.0 9.7 0.00 0.00 0.00 48 1016.3
20260507205404 18 188 0.0 9.7 0.00 0.00 0.00 47 1016.4
20260507205306 18 190 0.0 9.7 0.00 0.00 0.00 47 1016.4
20260507205225 18 196 0.0 4.8 0.00 0.00 0.00 47 1016.5
20260507205125 18 189 0.0 4.8 0.00 0.00 0.00 47 1016.6
20260507205004 18 171 0.0 11.3 0.00 0.00 0.00 47 1016.7
20260507204904 18 171 0.0 11.3 0.00 0.00 0.00 47 1016.8
20260507204825 18 171 0.0 11.3 0.00 0.00 0.00 47 1016.9
20260507204704 18 169 0.0 11.3 0.00 0.00 0.00 47 1016.9
20260507204604 18 171 0.0 11.3 0.00 0.00 0.00 47 1017.0
20260507204505 18 170 0.0 11.3 0.00 0.00 0.00 47 1017.1
20260507204404 18 166 0.0 11.3 0.00 0.00 0.00 47 1017.1
20260507204304 18 166 0.0 11.3 0.00 0.00 0.00 47 1017.1
20260507204204 18 166 0.0 11.3 0.00 0.00 0.00 47 1017.1
20260507204104 18 166 0.0 11.3 0.00 0.00 0.00 47 1017.1
20260507204025 18 178 0.0 11.3 0.00 0.00 0.00 47 1017.1
20260507203904 18 197 0.0 6.4 0.00 0.00 0.00 47 1017.2
20260507203804 18 197 0.0 6.4 0.00 0.00 0.00 47 1017.2
20260507203705 18 201 0.0 6.4 0.00 0.00 0.00 46 1017.2
20260507203604 18 198 0.0 6.4 0.00 0.00 0.00 47 1017.1
20260507203504 18 196 0.0 6.4 0.00 0.00 0.00 46 1017.0
20260507203404 18 196 0.0 6.4 0.00 0.00 0.00 47 1017.1
20260507203304 18 196 0.0 6.4 0.00 0.00 0.00 47 1017.0
20260507203204 18 196 0.0 6.4 0.00 0.00 0.00 47 1017.0
20260507203104 18 200 0.0 6.4 0.00 0.00 0.00 46 1017.0
20260507203004 18 186 0.0 4.8 0.00 0.00 0.00 46 1016.9
20260507202904 18 198 0.0 4.8 0.00 0.00 0.00 46 1016.9
20260507202804 18 200 0.0 4.8 0.00 0.00 0.00 46 1016.9
20260507202704 18 202 0.0 4.8 0.00 0.00 0.00 46 1017.0
20260507202604 18 207 0.0 4.8 0.00 0.00 0.00 46 1017.0
20260507202525 18 204 0.0 4.8 0.00 0.00 0.00 46 1016.9
20260507202404 18 194 0.0 9.7 0.00 0.00 0.00 46 1016.9
20260507202325 18 196 0.0 9.7 0.00 0.00 0.00 46 1016.9
20260507202204 18 196 0.0 9.7 0.00 0.00 0.00 47 1016.9
20260507202104 18 196 0.0 9.7 0.00 0.00 0.00 46 1016.9
20260507202004 18 195 0.0 9.7 0.00 0.00 0.00 46 1016.9
20260507201925 18 190 0.0 9.7 0.00 0.00 0.00 46 1017.0
20260507201804 18 190 0.0 9.7 0.00 0.00 0.00 46 1017.0
20260507201725 18 188 0.0 9.7 0.00 0.00 0.00 46 1016.9
20260507201625 18 187 0.0 9.7 0.00 0.00 0.00 46 1017.0
20260507201504 18 190 0.0 9.7 0.00 0.00 0.00 46 1017.0
20260507201426 18 193 0.0 8.0 0.00 0.00 0.00 46 1017.0
20260507201304 18 198 0.0 8.0 0.00 0.00 0.00 46 1017.0
20260507201204 18 198 0.0 8.0 0.00 0.00 0.00 46 1016.9
20260507201104 18 196 0.0 11.3 0.00 0.00 0.00 46 1016.9
20260507201004 18 196 0.0 11.3 0.00 0.00 0.00 46 1016.9
20260507200904 18 195 0.0 11.3 0.00 0.00 0.00 46 1016.8
20260507200804 18 211 0.0 11.3 0.00 0.00 0.00 46 1016.9
20260507200725 18 213 0.0 11.3 0.00 0.00 0.00 46 1017.0
20260507200604 18 200 0.0 11.3 0.00 0.00 0.00 45 1017.1
20260507200504 18 198 0.0 11.3 0.00 0.00 0.00 45 1017.2
20260507200404 18 190 0.0 11.3 0.00 0.00 0.00 45 1017.3
20260507200304 18 191 0.0 11.3 0.00 0.00 0.00 45 1017.4
20260507200204 17 193 1.6 11.3 0.00 0.00 0.00 45 1017.4
20260507200125 17 192 1.6 11.3 0.00 0.00 0.00 46 1017.5
20260507200004 17 192 1.6 11.3 0.00 0.00 0.00 46 1017.4
20260507195904 17 191 1.6 11.3 0.00 0.00 0.00 45 1017.5
20260507195804 17 189 1.6 11.3 0.00 0.00 0.00 45 1017.5
20260507195704 17 188 1.6 11.3 0.00 0.00 0.00 46 1017.5
20260507195604 17 189 1.6 11.3 0.00 0.00 0.00 45 1017.3
20260507195504 17 189 1.6 11.3 0.00 0.00 0.00 45 1017.3
20260507195404 17 189 1.6 11.3 0.00 0.00 0.00 45 1017.3
20260507195306 17 189 1.6 11.3 0.00 0.00 0.00 45 1017.3
20260507195225 17 190 1.6 11.3 0.00 0.00 0.00 45 1017.3
20260507195104 17 190 1.6 11.3 0.00 0.00 0.00 44 1017.2
20260507195004 17 189 1.6 11.3 0.00 0.00 0.00 44 1017.2
20260507194904 17 191 0.0 11.3 0.00 0.00 0.00 44 1017.1
20260507194804 17 192 0.0 11.3 0.00 0.00 0.00 44 1017.1
20260507194725 17 195 0.0 11.3 0.00 0.00 0.00 44 1017.2
20260507194604 17 200 0.0 11.3 0.00 0.00 0.00 44 1017.1
20260507194525 17 193 0.0 11.3 0.00 0.00 0.00 44 1017.1
20260507194404 17 196 0.0 11.3 0.00 0.00 0.00 44 1017.2
20260507194325 17 199 0.0 11.3 0.00 0.00 0.00 44 1017.2
20260507194204 17 192 0.0 6.4 0.00 0.00 0.00 44 1017.2
20260507194125 17 192 0.0 6.4 0.00 0.00 0.00 44 1017.2
20260507194025 17 191 0.0 6.4 0.00 0.00 0.00 44 1017.2
20260507193904 17 192 0.0 6.4 0.00 0.00 0.00 44 1017.2
20260507193825 17 191 0.0 6.4 0.00 0.00 0.00 43 1017.3
20260507193704 17 179 0.0 6.4 0.00 0.00 0.00 43 1017.3
20260507193604 17 179 0.0 6.4 0.00 0.00 0.00 43 1017.3
20260507193504 17 194 0.0 4.8 0.00 0.00 0.00 43 1017.3
20260507193404 17 194 0.0 4.8 0.00 0.00 0.00 43 1017.3
20260507193304 17 194 0.0 4.8 0.00 0.00 0.00 43 1017.4
20260507193204 17 194 0.0 4.8 0.00 0.00 0.00 43 1017.4
20260507193104 17 209 0.0 1.6 0.00 0.00 0.00 43 1017.4
20260507193004 18 213 0.0 1.6 0.00 0.00 0.00 42 1017.4
20260507192904 17 220 0.0 11.3 0.00 0.00 0.00 42 1017.5
20260507192804 17 219 0.0 16.1 0.00 0.00 0.00 42 1017.5
20260507192704 17 213 1.6 16.1 0.00 0.00 0.00 42 1017.6
20260507192625 17 204 1.6 16.1 0.00 0.00 0.00 43 1017.8
20260507192504 17 196 3.2 16.1 0.00 0.00 0.00 42 1017.7
20260507192404 17 196 3.2 16.1 0.00 0.00 0.00 42 1017.7
20260507192306 17 191 4.8 16.1 0.00 0.00 0.00 43 1017.6
20260507192225 17 191 4.8 16.1 0.00 0.00 0.00 43 1017.6
20260507192104 17 192 4.8 16.1 0.00 0.00 0.00 43 1017.5
20260507192025 17 193 6.4 16.1 0.00 0.00 0.00 43 1017.4
20260507191925 17 198 6.4 16.1 0.00 0.00 0.00 43 1017.3
20260507191804 17 198 6.4 16.1 0.00 0.00 0.00 43 1017.4
20260507191725 17 197 6.4 16.1 0.00 0.00 0.00 43 1017.3
20260507191604 17 200 6.4 16.1 0.00 0.00 0.00 43 1017.4
20260507191504 17 204 8.0 16.1 0.00 0.00 0.00 43 1017.5
20260507191425 17 207 8.0 16.1 0.00 0.00 0.00 43 1017.6
20260507191304 17 212 8.0 17.7 0.00 0.00 0.00 42 1017.7
20260507191225 17 213 8.0 17.7 0.00 0.00 0.00 42 1017.7
20260507191104 17 216 9.7 20.9 0.00 0.00 0.00 43 1017.7
20260507191025 17 214 9.7 20.9 0.00 0.00 0.00 42 1017.7
20260507190904 17 211 9.7 20.9 0.00 0.00 0.00 42 1017.6
20260507190825 17 211 9.7 20.9 0.00 0.00 0.00 43 1017.5
20260507190705 17 210 11.3 20.9 0.00 0.00 0.00 43 1017.4
20260507190604 17 209 11.3 20.9 0.00 0.00 0.00 43 1017.3
20260507190504 17 208 9.7 20.9 0.00 0.00 0.00 43 1017.4
20260507190404 17 210 9.7 20.9 0.00 0.00 0.00 43 1017.4
20260507190304 17 209 9.7 20.9 0.00 0.00 0.00 43 1017.5
20260507190204 17 210 9.7 20.9 0.00 0.00 0.00 43 1017.7
20260507190104 17 210 9.7 17.7 0.00 0.00 0.00 43 1017.8
20260507190005 17 211 9.7 17.7 0.00 0.00 0.00 42 1017.9
20260507185925 17 210 8.0 17.7 0.00 0.00 0.00 42 1018.0
20260507185804 17 206 8.0 17.7 0.00 0.00 0.00 42 1017.9
20260507185704 17 207 8.0 17.7 0.00 0.00 0.00 42 1017.9
20260507185604 17 205 8.0 16.1 0.00 0.00 0.00 41 1017.8
20260507185525 17 204 8.0 16.1 0.00 0.00 0.00 41 1017.7
20260507185404 17 201 8.0 16.1 0.00 0.00 0.00 42 1017.7
20260507185306 17 201 8.0 16.1 0.00 0.00 0.00 42 1017.8
20260507185204 17 200 8.0 16.1 0.00 0.00 0.00 42 1017.8
20260507185104 17 198 8.0 16.1 0.00 0.00 0.00 42 1017.9
20260507185004 17 196 9.7 16.1 0.00 0.00 0.00 41 1017.9
20260507184904 17 199 9.7 16.1 0.00 0.00 0.00 42 1017.9
20260507184804 17 201 9.7 16.1 0.00 0.00 0.00 42 1017.9
20260507184704 17 202 9.7 17.7 0.00 0.00 0.00 42 1017.9
20260507184604 17 205 9.7 17.7 0.00 0.00 0.00 42 1018.0
20260507184504 17 206 9.7 17.7 0.00 0.00 0.00 42 1018.0
20260507184404 17 204 9.7 17.7 0.00 0.00 0.00 42 1018.0
20260507184304 17 204 9.7 17.7 0.00 0.00 0.00 42 1018.1
20260507184204 17 203 8.0 17.7 0.00 0.00 0.00 42 1018.1
20260507184104 17 203 8.0 17.7 0.00 0.00 0.00 41 1018.1
20260507184025 17 207 8.0 17.7 0.00 0.00 0.00 42 1018.1
20260507183904 17 208 8.0 17.7 0.00 0.00 0.00 41 1018.2
20260507183804 17 205 8.0 17.7 0.00 0.00 0.00 41 1018.1
20260507183704 17 200 9.7 20.9 0.00 0.00 0.00 41 1018.1
20260507183625 17 198 9.7 20.9 0.00 0.00 0.00 41 1018.1
20260507183504 17 198 9.7 20.9 0.00 0.00 0.00 40 1018.1
20260507183425 17 198 9.7 20.9 0.00 0.00 0.00 40 1018.1
20260507183304 17 198 9.7 20.9 0.00 0.00 0.00 40 1018.1
20260507183204 17 199 9.7 20.9 0.00 0.00 0.00 40 1018.1
20260507183104 17 197 9.7 22.5 0.00 0.00 0.00 40 1018.0
20260507183004 17 195 9.7 22.5 0.00 0.00 0.00 40 1018.1
20260507182904 17 194 11.3 22.5 0.00 0.00 0.00 40 1018.0
20260507182804 17 194 9.7 22.5 0.00 0.00 0.00 40 1018.0
20260507182704 17 197 8.0 22.5 0.00 0.00 0.00 39 1017.9
20260507182604 17 198 8.0 22.5 0.00 0.00 0.00 38 1017.9
20260507182504 17 197 6.4 22.5 0.00 0.00 0.00 38 1017.9
20260507182404 17 196 6.4 22.5 0.00 0.00 0.00 38 1017.9
20260507182306 17 194 4.8 22.5 0.00 0.00 0.00 38 1017.9
20260507182204 17 188 4.8 22.5 0.00 0.00 0.00 38 1018.0
20260507182104 17 188 3.2 20.9 0.00 0.00 0.00 38 1018.0
20260507182004 17 189 1.6 20.9 0.00 0.00 0.00 38 1018.0
20260507181904 17 184 1.6 20.9 0.00 0.00 0.00 38 1018.0
20260507181804 17 201 1.6 11.3 0.00 0.00 0.00 38 1018.1
20260507181704 17 198 0.0 11.3 0.00 0.00 0.00 36 1018.2
20260507181625 17 199 1.6 11.3 0.00 0.00 0.00 37 1018.2
20260507181504 17 204 1.6 14.5 0.00 0.00 0.00 36 1018.3
20260507181425 17 205 1.6 14.5 0.00 0.00 0.00 36 1018.2
20260507181304 17 205 1.6 14.5 0.00 0.00 0.00 37 1018.2
20260507181225 17 205 1.6 14.5 0.00 0.00 0.00 37 1018.0
20260507181104 17 205 1.6 14.5 0.00 0.00 0.00 37 1018.0
20260507181004 17 204 1.6 14.5 0.00 0.00 0.00 37 1018.0
20260507180904 17 205 1.6 14.5 0.00 0.00 0.00 37 1017.9
20260507180804 17 205 1.6 14.5 0.00 0.00 0.00 36 1017.8
20260507180704 17 208 1.6 14.5 0.00 0.00 0.00 36 1017.8
20260507180604 17 208 1.6 14.5 0.00 0.00 0.00 37 1017.7
20260507180504 17 206 1.6 11.3 0.00 0.00 0.00 37 1017.8
20260507180404 17 204 1.6 11.3 0.00 0.00 0.00 37 1017.8
20260507180304 17 205 1.6 11.3 0.00 0.00 0.00 36 1017.8
20260507180204 17 206 1.6 11.3 0.00 0.00 0.00 36 1017.7
20260507180104 17 204 1.6 11.3 0.00 0.00 0.00 37 1017.7
20260507180004 17 205 1.6 11.3 0.00 0.00 0.00 37 1017.7
20260507175925 17 205 1.6 11.3 0.00 0.00 0.00 37 1017.7
20260507175804 17 204 0.0 8.0 0.00 0.00 0.00 36 1017.7
20260507175726 17 204 0.0 8.0 0.00 0.00 0.00 36 1017.8
20260507175625 17 210 0.0 8.0 0.00 0.00 0.00 36 1017.8
20260507175504 17 212 0.0 8.0 0.00 0.00 0.00 34 1017.9
20260507175404 17 219 0.0 4.8 0.00 0.00 0.00 34 1017.9
20260507175307 17 216 0.0 4.8 0.00 0.00 0.00 34 1018.0
20260507175204 17 218 0.0 6.4 0.00 0.00 0.00 34 1018.0
20260507175104 17 220 0.0 12.9 0.00 0.00 0.00 33 1018.1
20260507175025 17 221 0.0 12.9 0.00 0.00 0.00 33 1018.1
20260507174904 17 221 0.0 12.9 0.00 0.00 0.00 34 1018.1
20260507174825 17 220 0.0 12.9 0.00 0.00 0.00 33 1018.1
20260507174704 16 221 1.6 12.9 0.00 0.00 0.00 34 1018.0
20260507174604 16 219 1.6 12.9 0.00 0.00 0.00 33 1018.1
20260507174504 16 220 1.6 12.9 0.00 0.00 0.00 34 1018.1
20260507174405 16 219 1.6 12.9 0.00 0.00 0.00 34 1018.1
20260507174304 16 219 1.6 12.9 0.00 0.00 0.00 35 1018.0
20260507174204 16 219 0.0 12.9 0.00 0.00 0.00 34 1018.0
20260507174104 16 219 0.0 11.3 0.00 0.00 0.00 34 1018.0
20260507174004 16 219 0.0 11.3 0.00 0.00 0.00 34 1017.8
20260507173904 16 218 1.6 9.7 0.00 0.00 0.00 33 1017.8
20260507173804 16 217 1.6 12.9 0.00 0.00 0.00 34 1017.9
20260507173704 16 215 0.0 12.9 0.00 0.00 0.00 33 1018.1
20260507173604 16 216 0.0 12.9 0.00 0.00 0.00 32 1018.2
20260507173525 16 216 0.0 12.9 0.00 0.00 0.00 33 1018.2
20260507173404 16 218 0.0 12.9 0.00 0.00 0.00 33 1018.2
20260507173304 16 217 0.0 12.9 0.00 0.00 0.00 33 1018.2
20260507173204 16 218 0.0 12.9 0.00 0.00 0.00 34 1018.2
20260507173125 16 215 0.0 12.9 0.00 0.00 0.00 34 1018.2
20260507173004 16 214 0.0 12.9 0.00 0.00 0.00 33 1018.2
20260507172904 16 211 0.0 12.9 0.00 0.00 0.00 31 1018.1
20260507172804 16 221 0.0 8.0 0.00 0.00 0.00 31 1017.9
20260507172725 16 220 0.0 8.0 0.00 0.00 0.00 31 1017.8
20260507172604 16 214 0.0 8.0 0.00 0.00 0.00 32 1017.8
20260507172504 16 219 0.0 8.0 0.00 0.00 0.00 32 1017.8
20260507172404 16 222 0.0 8.0 0.00 0.00 0.00 33 1018.0
20260507172307 16 227 0.0 8.0 0.00 0.00 0.00 34 1018.2
20260507172204 16 227 0.0 8.0 0.00 0.00 0.00 33 1018.2
20260507172104 16 218 0.0 19.3 0.00 0.00 0.00 32 1018.1
20260507172004 16 217 0.0 19.3 0.00 0.00 0.00 33 1018.0
20260507171904 16 215 1.6 19.3 0.00 0.00 0.00 33 1017.9
20260507171804 16 202 1.6 19.3 0.00 0.00 0.00 33 1018.0
20260507171704 16 201 1.6 19.3 0.00 0.00 0.00 32 1018.0
20260507171604 16 200 1.6 19.3 0.00 0.00 0.00 32 1018.0
20260507171504 16 196 1.6 19.3 0.00 0.00 0.00 32 1017.9
20260507171404 16 195 1.6 19.3 0.00 0.00 0.00 32 1017.8
20260507171304 16 191 1.6 19.3 0.00 0.00 0.00 33 1018.0
20260507171204 16 192 1.6 19.3 0.00 0.00 0.00 32 1018.2
20260507171104 16 191 0.0 19.3 0.00 0.00 0.00 32 1018.4
20260507171004 16 183 0.0 11.3 0.00 0.00 0.00 32 1018.7
20260507170904 16 180 0.0 11.3 0.00 0.00 0.00 32 1018.8
20260507170804 16 203 0.0 6.4 0.00 0.00 0.00 31 1018.8
20260507170704 16 205 0.0 6.4 0.00 0.00 0.00 31 1018.8
20260507170604 16 202 0.0 6.4 0.00 0.00 0.00 31 1018.7
20260507170504 16 205 0.0 9.7 0.00 0.00 0.00 32 1018.6
20260507170404 16 203 0.0 9.7 0.00 0.00 0.00 31 1018.6
20260507170304 16 202 0.0 9.7 0.00 0.00 0.00 30 1018.5
20260507170204 16 211 1.6 17.7 0.00 0.00 0.00 30 1018.5
20260507170104 16 215 1.6 17.7 0.00 0.00 0.00 30 1018.6
20260507170025 16 215 1.6 17.7 0.00 0.00 0.00 29 1018.5
20260507165904 16 214 1.6 17.7 0.00 0.00 0.00 30 1018.4
20260507165804 16 213 1.6 17.7 0.00 0.00 0.00 30 1018.5
20260507165704 16 210 3.2 17.7 0.00 0.00 0.00 29 1018.5
20260507165604 16 209 3.2 17.7 0.00 0.00 0.00 29 1018.5
20260507165525 16 209 3.2 17.7 0.00 0.00 0.00 29 1018.4
20260507165425 16 210 3.2 17.7 0.00 0.00 0.00 29 1018.2
20260507165306 16 209 3.2 17.7 0.00 0.00 0.00 29 1018.0
20260507165204 16 205 1.6 17.7 0.00 0.00 0.00 28 1018.0
20260507165104 16 202 1.6 17.7 0.00 0.00 0.00 28 1018.0
20260507165004 16 202 1.6 17.7 0.00 0.00 0.00 28 1018.1
20260507164904 16 194 1.6 14.5 0.00 0.00 0.00 28 1018.2
20260507164825 16 194 1.6 14.5 0.00 0.00 0.00 28 1018.3
20260507164704 16 194 1.6 14.5 0.00 0.00 0.00 24 1018.3
20260507164605 16 194 1.6 12.9 0.00 0.00 0.00 24 1018.2
20260507164504 16 194 1.6 12.9 0.00 0.00 0.00 23 1018.2
20260507164404 16 193 1.6 12.9 0.00 0.00 0.00 23 1018.2
20260507164304 15 193 1.6 12.9 0.00 0.00 0.00 22 1018.4
20260507164225 15 193 1.6 12.9 0.00 0.00 0.00 23 1018.6
20260507164104 15 190 1.6 12.9 0.00 0.00 0.00 23 1018.8
20260507164004 15 191 1.6 12.9 0.00 0.00 0.00 23 1018.9
20260507163904 15 186 1.6 12.9 0.00 0.00 0.00 23 1018.9
20260507163804 15 182 1.6 12.9 0.00 0.00 0.00 23 1018.9
20260507163704 15 179 0.0 12.9 0.00 0.00 0.00 22 1018.9
20260507163604 15 176 1.6 14.5 0.00 0.00 0.00 22 1019.1
20260507163504 15 165 1.6 14.5 0.00 0.00 0.00 20 1019.3
20260507163404 15 163 1.6 17.7 0.00 0.00 0.00 20 1019.5
20260507163325 15 163 1.6 17.7 0.00 0.00 0.00 20 1019.6
20260507163204 15 162 1.6 17.7 0.00 0.00 0.00 21 1019.7
20260507163104 15 162 1.6 17.7 0.00 0.00 0.00 22 1019.8
20260507163004 15 161 1.6 17.7 0.00 0.00 0.00 23 1019.9
20260507162904 15 164 1.6 17.7 0.00 0.00 0.00 24 1019.8
20260507162804 15 167 1.6 17.7 0.00 0.00 0.00 24 1019.7
20260507162704 15 167 1.6 17.7 0.00 0.00 0.00 24 1019.6
20260507162604 15 164 1.6 17.7 0.00 0.00 0.00 24 1019.7
20260507162504 15 165 0.0 17.7 0.00 0.00 0.00 22 1019.8
20260507162404 15 174 0.0 9.7 0.00 0.00 0.00 22 1019.8
20260507162307 15 175 0.0 9.7 0.00 0.00 0.00 21 1019.7
20260507162204 15 174 0.0 12.9 0.00 0.00 0.00 22 1019.4
20260507162104 15 173 0.0 12.9 0.00 0.00 0.00 23 1019.2
20260507162004 15 173 0.0 12.9 0.00 0.00 0.00 23 1019.1
20260507161904 15 172 0.0 12.9 0.00 0.00 0.00 23 1019.1
20260507161804 15 168 0.0 12.9 0.00 0.00 0.00 22 1019.1
20260507161704 15 171 0.0 12.9 0.00 0.00 0.00 22 1019.1
20260507161604 15 171 0.0 12.9 0.00 0.00 0.00 22 1019.3
20260507161525 15 171 0.0 12.9 0.00 0.00 0.00 22 1019.3
20260507161404 15 171 0.0 12.9 0.00 0.00 0.00 23 1019.4
20260507161304 15 180 0.0 12.9 0.00 0.00 0.00 24 1019.3
20260507161225 15 184 0.0 9.7 0.00 0.00 0.00 23 1019.3
20260507161104 15 196 0.0 9.7 0.00 0.00 0.00 23 1019.1
20260507161004 15 197 0.0 9.7 0.00 0.00 0.00 24 1019.1
20260507160904 15 191 1.6 12.9 0.00 0.00 0.00 24 1019.1
20260507160825 15 193 1.6 12.9 0.00 0.00 0.00 24 1019.1
20260507160704 15 193 1.6 12.9 0.00 0.00 0.00 24 1019.2
20260507160604 15 194 1.6 12.9 0.00 0.00 0.00 24 1019.3
20260507160504 15 194 1.6 12.9 0.00 0.00 0.00 24 1019.4
20260507160404 15 194 1.6 12.9 0.00 0.00 0.00 24 1019.4
20260507160304 15 194 1.6 12.9 0.00 0.00 0.00 23 1019.3
20260507160204 15 194 1.6 12.9 0.00 0.00 0.00 24 1019.1
20260507160125 15 193 1.6 12.9 0.00 0.00 0.00 24 1019.1